GFSNE_prec_cloud_057.txt.gz
Cloud_Cover
100 100 100 100 100 100 100 100 100 100 100 100 100 100 100 100 100 99 55 5 5 5 17 6 5 5 5 4 6 13 70 57 78 93 100 100 100 100
100 100 100 100 100 100 100 100 100 100 100 100 100 100 100 100 100 100 100 88 54 45 90 29 5 56 30 70 87 94 100 95 99 100 100 100 100 100
100 100 100 100 100 100 100 100 100 100 100 100 100 100 100 100 100 100 100 100 100 93 11 5 46 54 78 86 98 99 100 100 100 100 100 100 100 100
100 100 100 100 100 100 100 100 100 100 100 100 100 100 100 100 97 100 100 100 92 73 84 62 9 5 5 11 89 100 94 100 100 100 100 100 100 100
100 100 100 100 100 100 100 100 100 100 100 100 100 100 100 100 100 100 100 100 100 100 100 37 60 81 5 5 50 79 38 59 68 96 100 97 94 95
100 100 100 100 100 100 100 100 100 100 100 100 100 100 100 100 99 100 100 100 100 100 100 100 8 5 5 5 5 5 5 5 5 27 94 97 100 100
100 100 100 100 100 100 100 100 100 100 100 100 100 100 100 100 100 96 47 74 77 55 5 5 5 6 5 5 5 5 5 5 5 61 98 100 100 100
100 100 100 100 100 100 100 100 100 100 100 100 100 100 100 100 81 70 89 100 97 5 25 83 5 5 5 5 0 5 5 5 80 97 100 100 100 100
100 100 100 100 100 100 100 100 100 99 99 100 100 100 94 73 12 32 91 100 100 18 45 52 5 5 5 5 0 4 5 18 35 84 100 100 100 100
100 100 100 100 100 100 100 100 100 100 100 56 52 45 12 46 98 95 88 73 71 5 47 84 5 5 5 5 5 5 5 5 26 88 94 100 100 100
100 100 100 99 100 100 100 100 100 100 62 3 5 16 17 13 6 55 77 85 83 6 21 92 30 66 63 5 3 0 5 5 9 6 10 92 97 100
100 100 100 100 100 100 100 100 100 31 5 5 5 2 0 0 5 5 56 98 100 87 5 72 88 96 85 5 4 4 5 5 5 5 70 94 97 100
100 100 100 100 100 95 82 23 6 84 8 5 0 2 5 5 5 5 51 99 100 96 35 100 93 98 100 93 21 5 5 5 5 5 5 92 98 100
100 100 100 92 81 73 10 46 99 68 5 5 5 5 5 5 5 5 8 54 84 86 7 99 99 98 100 100 96 96 90 6 5 63 45 31 26 29
100 100 100 100 45 6 18 77 23 5 5 38 68 66 60 38 52 89 86 79 87 81 83 100 94 100 100 100 99 58 100 96 5 65 99 83 85 84
94 65 29 40 12 5 5 5 5 8 86 93 91 86 86 98 89 82 98 89 88 12 5 5 53 87 99 100 100 97 100 100 100 61 82 87 65 85
66 20 5 5 5 5 5 5 5 13 82 94 97 98 92 92 83 89 93 97 99 88 38 5 7 94 96 98 100 91 87 70 78 58 89 92 90 79
7 5 5 5 5 9 7 27 5 59 88 91 100 100 96 99 97 83 91 100 100 95 95 61 82 84 68 100 95 84 90 96 90 99 100 100 89 99
5 5 5 13 70 77 87 98 96 88 61 99 100 100 100 100 100 96 86 100 100 100 92 90 100 100 100 95 100 100 100 29 71 100 100 100 98 100
5 10 57 62 85 99 98 100 100 98 100 100 99 100 97 100 100 100 100 100 100 97 84 71 89 97 100 100 100 95 100 100 100 99 100 98 100 100
5 60 75 93 98 99 100 100 100 100 96 98 99 99 100 100 100 100 100 96 100 97 100 84 8 69 100 100 100 85 100 100 100 100 100 100 100 100
6 69 76 96 100 100 100 100 100 100 99 99 99 98 98 100 100 100 99 100 86 100 79 60 95 100 100 100 100 100 99 100 100 100 100 100 100 100
5 56 81 99 100 100 100 100 100 100 98 100 100 99 95 100 100 100 99 100 96 100 94 99 100 100 100 100 100 93 100 100 100 100 100 100 100 100

GFSNE_prec_cloud_060.txt.gz
Cloud_Cover
100 100 100 100 100 100 100 100 100 100 100 100 100 100 100 100 100 100 100 100 100 100 100 100 75 98 100 90 61 94 95 5 13 59 89 90 100 100
100 100 100 100 100 100 100 100 100 100 100 100 100 100 100 100 100 100 100 100 100 100 100 80 100 94 81 56 11 4 10 91 97 88 100 100 100 100
100 100 100 100 100 100 100 100 100 100 100 100 100 100 100 100 100 100 100 99 100 100 100 5 12 6 56 5 68 89 100 92 97 100 100 100 100 100
100 100 100 100 100 100 100 100 100 100 100 100 94 100 100 100 100 100 100 100 100 100 75 56 97 99 39 5 5 5 72 94 91 99 99 94 88 99
100 100 100 100 100 100 100 100 100 100 100 100 100 100 100 100 100 100 100 100 100 100 100 81 68 5 5 5 5 5 6 5 5 40 75 84 91 97
100 100 100 100 100 100 100 100 100 100 100 100 100 100 100 100 84 76 100 100 100 98 99 65 34 5 5 5 5 5 5 5 5 5 9 31 92 99
100 100 100 100 100 100 100 100 100 100 100 100 100 100 100 100 100 100 58 42 100 76 60 23 9 5 5 5 3 5 5 5 5 10 79 100 100 100
100 100 100 100 100 100 100 100 100 100 100 100 100 100 100 100 97 92 80 93 100 57 6 31 5 5 5 5 4 5 5 5 5 50 93 100 100 100
100 100 100 100 100 100 100 100 100 100 100 100 100 100 98 77 94 100 100 100 100 68 87 70 22 13 5 5 4 5 5 5 5 5 74 100 100 100
100 100 100 100 100 100 100 100 100 100 100 100 100 100 100 56 86 96 92 100 82 87 96 63 14 34 5 5 5 5 5 5 5 5 22 90 94 96
100 100 100 100 100 100 100 100 100 100 100 100 100 100 57 13 26 36 76 94 78 20 7 66 27 85 5 5 5 5 5 5 5 5 59 88 96 99
100 100 100 100 100 100 100 100 100 100 100 100 55 5 5 4 5 5 82 99 100 97 60 41 78 93 81 5 5 5 5 5 5 58 98 98 100 100
100 100 100 100 100 100 100 100 100 100 92 74 5 5 5 5 5 5 50 100 100 100 26 100 82 92 100 91 5 5 5 5 5 5 91 97 100 100
100 100 100 100 100 100 100 85 97 93 14 5 5 5 36 69 77 68 82 83 98 93 21 100 98 97 100 99 92 5 5 28 48 57 44 80 92 100
100 96 92 71 25 7 5 19 18 5 5 26 79 91 90 85 81 95 86 100 100 97 84 72 98 100 100 100 98 74 91 100 25 43 69 89 98 100
75 46 7 5 5 5 4 5 5 5 46 92 86 83 86 88 96 100 100 100 100 71 53 42 48 100 100 100 100 100 88 99 24 40 100 100 100 100
16 5 5 5 5 5 5 5 5 6 85 97 90 96 92 99 100 100 100 100 100 100 82 10 89 100 100 100 100 100 100 82 100 100 100 100 100 92
5 3 5 5 5 5 5 18 81 93 93 93 97 98 100 100 100 100 98 100 100 100 100 71 91 100 80 82 51 85 81 96 97 100 100 100 100 100
3 5 5 54 61 79 91 94 97 99 91 100 100 100 100 100 100 98 100 98 100 100 100 100 100 100 100 90 96 100 100 63 76 98 100 100 100 99
5 33 81 94 96 99 92 99 100 100 100 100 100 100 100 100 100 100 100 96 100 100 100 100 89 100 100 100 100 100 100 100 100 100 100 100 100 89
5 45 88 98 97 99 100 100 100 100 100 100 100 100 100 100 100 98 99 98 100 100 100 100 55 94 100 100 100 100 100 100 100 100 100 100 100 100
5 63 86 94 93 100 100 100 100 100 100 100 100 100 100 100 100 100 98 100 100 100 100 100 98 100 100 100 100 100 96 100 100 100 100 100 100 100
54 58 82 100 92 100 100 100 100 100 100 100 100 100 100 100 100 100 100 100 100 100 99 99 100 90 100 100 100 100 100 100 100 100 100 100 100 100

GFSNE_prec_cloud_063.txt.gz
Cloud_Cover
100 100 100 100 100 100 100 100 100 100 100 100 100 100 100 100 100 100 100 100 100 100 100 80 78 95 98 100 100 100 81 50 66 63 29 11 58 95
100 100 100 100 100 100 100 100 100 100 100 100 100 100 100 100 100 100 100 100 100 100 100 100 100 96 21 18 14 20 9 13 60 84 93 100 100 100
100 100 100 100 100 100 100 100 100 100 100 100 100 100 100 100 100 100 100 100 100 100 100 100 99 98 88 100 77 7 62 6 24 19 97 100 100 100
100 100 100 100 100 100 100 100 100 100 100 100 100 100 100 100 100 100 100 100 99 100 100 100 90 100 49 55 50 20 5 5 8 85 98 100 100 100
100 100 100 100 100 100 100 100 100 100 100 100 100 100 100 100 100 100 100 100 100 90 100 100 48 5 5 5 5 5 5 5 46 44 27 18 6 29
100 100 100 100 100 100 90 98 95 100 100 100 100 100 96 82 99 99 99 100 99 100 83 5 5 5 5 18 5 5 5 48 11 13 5 5 48 87
100 100 100 100 100 100 100 100 100 100 100 100 93 100 100 100 100 100 100 82 96 16 5 82 98 100 100 88 33 5 5 9 43 74 83 86 98 100
100 100 100 100 100 100 100 100 100 100 100 100 100 100 100 100 100 100 100 99 88 96 100 100 24 5 5 0 4 5 5 66 44 98 98 98 100 100
100 100 100 100 100 100 100 100 100 100 100 100 100 100 100 99 72 50 68 83 100 100 100 99 5 5 0 0 0 5 5 5 5 5 5 15 50 95
100 100 100 100 100 100 100 100 100 100 100 100 99 100 100 100 100 100 100 100 70 22 61 30 5 3 1 3 4 5 5 5 5 5 5 74 99 100
100 100 100 100 100 100 100 100 100 100 100 100 100 100 100 100 100 100 63 38 27 23 5 6 5 5 5 2 0 1 5 5 5 5 60 91 99 100
100 100 100 100 100 100 100 100 100 100 100 100 100 98 82 25 5 5 5 76 100 94 17 5 6 44 30 4 3 0 0 4 5 5 16 96 100 100
100 100 100 100 100 100 100 92 76 66 85 80 5 5 5 5 5 33 52 76 100 100 47 98 49 67 97 60 5 5 5 5 5 5 5 52 100 100
60 82 56 20 5 6 16 35 81 86 12 5 5 5 26 48 91 100 100 98 93 100 89 100 100 100 100 100 98 8 5 5 8 6 9 25 71 100
5 5 5 5 5 5 5 5 5 5 5 5 31 79 100 100 100 100 100 100 100 100 100 95 100 100 100 100 100 87 97 37 5 5 58 94 99 94
30 26 26 5 5 5 5 5 5 5 5 5 10 28 81 100 100 100 100 100 100 100 100 100 100 100 100 100 100 94 85 100 81 23 74 72 94 92
69 59 13 5 5 5 5 5 5 5 5 74 98 100 100 100 100 100 100 97 98 100 100 100 100 100 100 99 97 89 100 100 100 100 100 100 91 100
54 25 6 5 5 5 5 7 63 91 97 100 100 100 100 100 100 100 100 94 96 100 100 100 100 100 96 80 21 63 100 99 100 98 95 100 98 100
18 20 11 5 5 10 77 98 100 100 100 100 100 100 100 100 100 100 100 89 91 100 100 100 100 100 100 100 84 100 100 10 76 100 79 100 100 100
6 6 5 5 11 78 100 100 100 100 100 100 100 100 100 100 100 100 100 97 97 94 100 100 100 100 100 100 100 90 94 100 100 100 100 100 96 98
48 5 5 8 82 100 100 100 100 100 100 100 100 100 100 100 100 100 100 100 100 99 100 100 100 97 100 100 100 89 31 100 100 100 100 100 100 100
18 5 5 21 90 100 100 100 100 100 100 100 100 100 100 100 100 100 100 100 100 100 98 100 100 88 100 100 93 81 83 36 55 94 98 100 100 100
5 5 66 55 80 100 100 100 100 100 100 100 100 100 100 100 100 100 100 100 100 100 90 82 85 100 100 97 89 93 99 100 100 100 100 100 100 100

GFSNE_prec_cloud_066.txt.gz
Cloud_Cover
100 100 100 100 100 100 100 100 100 100 100 100 100 100 100 100 100 100 100 100 100 100 100 100 100 100 100 100 98 70 66 40 100 100 71 7 49 100
100 100 100 100 100 100 100 100 100 100 100 100 100 100 100 100 100 100 100 100 100 100 100 100 100 100 100 100 94 6 25 69 76 60 53 98 100 100
100 100 100 100 100 100 100 100 100 100 100 100 100 100 100 100 100 100 100 100 100 100 100 100 100 100 96 60 85 100 100 87 50 86 100 100 100 100
100 100 100 100 100 100 100 100 100 100 100 100 100 100 100 100 100 100 100 100 100 100 100 100 100 100 85 97 100 100 99 75 95 94 100 100 100 100
100 100 100 100 100 100 100 100 95 100 100 100 100 100 100 100 100 100 100 100 100 96 73 100 100 99 100 100 99 98 97 98 82 61 65 20 17 49
100 100 100 100 100 100 100 100 100 99 100 100 100 100 87 30 91 81 100 100 100 99 88 100 96 100 100 86 100 100 100 100 74 38 19 11 12 19
100 100 100 100 100 100 100 100 100 100 100 100 100 100 100 100 100 100 100 100 95 84 95 94 100 99 60 94 83 46 5 7 75 70 77 98 100 100
100 100 100 100 100 100 100 100 100 100 100 100 100 100 100 100 100 100 100 91 79 93 100 98 100 100 100 27 5 5 5 6 68 93 72 77 83 100
100 100 100 100 100 100 100 100 100 100 100 100 100 100 100 100 100 100 100 100 100 100 100 100 99 52 2 0 0 5 5 6 13 20 67 79 99 100
97 98 100 93 100 100 100 100 100 100 100 96 94 100 100 100 100 100 100 100 100 100 97 68 5 3 1 3 0 4 5 5 5 22 61 82 100 100
100 100 100 100 100 100 100 100 100 100 100 100 100 100 100 100 73 36 13 9 12 5 5 5 5 5 0 1 2 0 5 5 5 6 99 100 100 100
93 99 99 99 100 96 98 82 70 54 43 5 5 5 3 0 5 5 5 34 21 67 5 37 11 43 42 9 7 4 5 3 5 5 68 100 100 100
5 5 5 6 5 6 19 5 5 5 5 6 5 5 5 5 5 5 5 48 91 100 79 100 86 97 100 98 38 18 5 5 5 5 5 6 72 100
5 5 5 13 34 68 74 73 72 64 9 5 5 5 39 5 63 99 100 100 96 91 92 100 100 100 100 100 100 36 58 14 5 5 5 5 8 40
5 23 38 30 40 61 71 63 5 5 5 5 10 78 100 100 100 100 100 100 100 100 100 100 100 100 100 100 100 90 80 5 5 7 53 6 6 25
88 98 76 65 86 73 33 5 5 5 5 5 22 90 75 100 100 100 100 100 100 97 24 100 100 100 100 100 95 86 93 99 22 5 65 5 5 98
32 42 31 38 43 5 5 5 5 6 40 58 98 100 100 100 100 100 100 100 100 100 57 100 100 100 100 99 100 100 100 100 57 39 97 95 57 98
100 76 34 27 22 5 5 5 6 93 100 100 100 100 100 100 100 100 100 100 100 100 89 100 100 100 78 38 32 91 72 79 24 39 100 100 76 78
45 60 75 24 5 5 5 83 100 100 100 100 100 100 100 100 100 100 100 100 100 100 92 97 100 100 100 90 5 8 19 6 38 60 78 97 91 99
42 54 20 7 8 5 87 100 100 100 100 100 100 100 100 100 100 98 100 100 100 100 100 91 87 97 100 97 100 84 82 41 62 38 71 75 55 95
57 17 5 5 5 79 100 100 100 100 100 100 100 100 100 99 85 94 96 98 100 100 99 80 8 28 87 99 100 65 61 100 100 100 100 100 94 100
6 12 5 5 5 56 100 100 100 100 100 100 100 100 100 97 88 94 97 100 98 99 99 69 12 45 95 100 98 97 98 22 26 87 100 85 100 100
10 16 6 5 19 52 100 100 100 100 100 100 99 83 85 96 82 96 100 100 100 100 97 100 100 100 100 100 100 100 86 80 53 14 5 42 99 100

GFSNE_prec_cloud_069.txt.gz
Cloud_Cover
98 100 100 100 100 100 100 100 100 100 100 100 100 100 100 100 100 100 100 100 100 100 100 100 100 100 100 100 100 100 100 100 100 95 80 100 100 75
100 100 100 100 100 100 100 100 100 100 100 100 100 100 100 100 100 100 100 100 100 100 100 100 100 100 100 100 100 100 100 100 100 100 100 100 100 100
100 100 100 100 100 100 100 100 100 100 100 100 100 100 100 100 100 100 100 100 100 100 100 100 100 100 100 100 100 100 100 100 100 100 100 100 96 100
100 100 100 100 100 100 100 100 100 100 100 100 100 100 100 100 100 100 100 100 100 100 100 100 100 100 100 100 100 100 100 100 100 100 100 100 100 99
100 100 100 100 100 100 99 100 100 100 100 100 100 100 100 100 100 100 100 100 100 100 100 100 100 100 88 29 53 53 52 30 86 100 100 100 94 79
100 100 100 100 100 100 100 100 100 100 100 100 100 100 100 100 100 100 100 100 100 99 100 100 92 85 100 43 33 10 5 15 32 48 24 29 5 44
100 100 100 100 100 100 100 100 100 100 100 100 100 100 100 100 100 100 97 100 76 98 66 77 98 85 100 100 100 100 100 74 35 5 40 44 97 99
100 100 100 100 88 100 100 100 100 100 100 100 100 100 100 100 100 89 94 100 100 100 100 100 100 100 100 100 99 80 5 5 5 5 33 98 90 100
50 40 78 62 70 99 100 100 100 100 100 100 100 100 100 100 100 100 100 98 92 75 46 25 25 8 5 1 0 4 5 5 5 6 87 98 100 100
4 2 2 5 5 49 82 98 100 100 100 63 60 60 58 61 43 13 6 5 5 5 5 54 5 5 5 5 4 5 5 5 5 7 6 41 97 78
0 0 0 0 5 43 5 5 5 5 5 5 5 5 8 5 6 5 43 5 34 5 5 8 5 5 5 5 5 4 5 5 5 5 12 45 90 100
0 0 5 5 76 76 6 5 14 45 62 67 56 60 34 5 6 5 5 5 75 37 6 53 41 100 31 8 7 5 5 4 5 5 5 38 95 97
2 0 5 60 5 5 17 15 38 59 55 39 22 5 5 5 5 5 20 48 74 98 87 100 99 100 100 100 83 31 5 5 5 5 5 5 6 64
5 5 8 21 62 66 57 52 78 57 16 5 5 5 5 53 64 82 100 100 100 100 100 100 100 100 100 99 96 9 5 5 5 5 5 5 5 6
5 5 66 75 43 16 25 67 73 50 5 5 7 5 70 77 60 100 100 100 100 100 100 100 100 100 96 99 86 85 80 18 64 5 5 5 5 16
5 11 68 100 100 98 60 31 5 5 5 5 5 59 73 100 100 100 100 100 100 100 99 5 86 84 94 91 97 100 100 100 93 43 16 18 31 21
5 29 36 47 40 5 5 5 5 5 63 94 100 100 100 100 100 100 100 100 100 100 100 74 54 97 96 95 95 92 85 91 57 6 40 52 5 6
40 20 6 5 5 5 5 5 5 87 100 100 100 100 100 100 100 100 100 100 100 100 100 100 88 95 43 37 27 100 100 88 8 5 64 100 99 15
22 5 5 5 5 5 5 48 100 100 100 100 100 100 100 100 100 100 99 100 93 93 100 100 100 100 100 85 5 5 5 5 7 46 69 100 80 32
5 5 5 5 5 24 28 99 100 100 100 100 100 100 100 100 100 91 82 100 96 90 91 95 86 81 100 100 100 18 5 5 15 48 55 93 98 99
15 12 5 5 5 24 50 100 100 100 100 100 100 100 100 100 87 81 96 94 100 91 95 71 5 34 82 99 100 74 10 6 88 90 46 98 95 88
6 5 5 5 5 43 18 98 100 100 100 100 100 100 98 100 99 99 100 100 100 100 96 58 5 20 98 100 100 100 65 84 22 6 28 48 93 100
24 5 7 58 18 60 64 13 100 100 100 100 100 100 93 96 98 95 100 100 100 100 99 90 100 97 100 100 100 100 93 86 41 100 35 33 100 100

GFSNE_prec_cloud_072.txt.gz
Cloud_Cover
100 97 99 100 98 100 100 100 100 100 100 100 100 100 100 100 100 100 100 100 100 100 100 100 100 100 100 100 100 100 100 100 100 100 100 100 100 98
100 92 95 100 100 100 100 100 100 100 100 100 100 100 100 100 100 100 100 100 100 100 100 100 100 100 100 100 100 100 100 100 100 100 100 100 100 100
98 100 100 100 100 100 100 100 100 100 100 100 100 100 100 100 100 100 100 100 100 100 100 100 100 100 100 100 100 100 100 100 100 100 100 100 100 100
79 100 100 100 100 100 100 100 100 100 100 100 100 100 100 100 100 100 100 100 100 100 100 100 100 100 100 100 100 100 100 100 100 100 100 100 100 100
100 99 98 100 100 100 88 87 100 100 100 92 100 100 100 100 100 100 100 100 100 100 100 100 100 100 100 100 100 100 100 100 100 100 97 94 75 38
89 100 99 100 94 61 86 95 100 100 100 100 100 100 100 100 100 100 100 100 100 100 100 100 100 100 100 100 100 100 100 100 100 45 11 34 37 43
100 100 100 97 91 80 99 100 100 100 98 97 100 96 99 100 100 87 68 83 68 89 100 100 100 100 100 98 86 17 20 29 19 9 22 61 95 76
100 59 57 55 40 91 100 96 100 100 90 96 100 97 13 5 5 5 11 44 31 64 76 46 10 5 5 5 5 5 5 5 5 11 71 98 78 81
7 5 5 18 61 60 6 4 4 5 5 5 5 5 5 5 6 6 5 5 5 5 5 5 5 5 5 5 5 5 5 13 13 28 37 23 98 73
5 2 2 4 5 6 5 5 5 5 14 47 74 77 73 66 68 86 87 78 51 42 5 64 5 5 5 5 5 5 5 10 6 8 6 18 52 98
1 4 1 5 19 61 5 5 5 5 5 5 9 24 11 52 42 22 70 76 10 5 5 11 5 12 5 5 5 9 5 5 5 5 5 31 94 100
5 5 5 5 5 5 5 5 5 5 9 60 70 9 5 5 5 5 5 33 68 37 9 60 39 67 32 5 7 5 5 2 5 5 5 12 70 80
5 5 5 13 5 5 5 34 100 100 99 28 5 5 5 5 5 5 5 41 96 100 77 98 100 100 95 84 9 5 5 5 5 5 5 5 5 39
5 5 5 5 5 5 5 15 82 29 5 5 5 6 6 5 63 91 95 100 100 99 100 100 100 100 100 100 88 7 5 5 6 5 5 5 5 5
5 5 5 5 5 5 5 55 11 5 5 5 5 5 8 52 88 100 100 100 100 100 100 100 100 100 100 100 96 96 89 64 68 7 14 14 5 5
5 5 6 5 5 5 5 5 5 5 5 8 29 77 89 100 100 100 100 100 100 100 99 100 100 100 100 98 92 90 92 100 24 5 5 5 6 7
22 37 37 34 24 37 14 10 5 5 15 99 100 100 100 100 100 100 100 100 99 92 91 98 87 97 85 100 100 97 87 100 100 24 24 66 30 11
5 5 7 52 74 69 38 6 18 25 100 100 100 100 100 100 100 100 100 99 99 67 42 60 91 92 16 5 24 96 83 88 34 5 26 88 100 26
5 26 5 61 69 17 53 60 40 100 100 100 100 100 100 100 100 100 99 97 96 74 10 12 63 98 100 97 8 5 5 10 5 22 77 78 90 39
18 6 76 42 55 51 35 59 93 100 100 100 100 100 100 100 100 92 79 90 85 79 90 32 54 88 100 98 99 76 5 5 10 26 17 7 22 77
68 14 73 98 79 29 5 14 77 100 100 100 100 100 100 100 82 76 85 91 99 95 94 63 44 97 100 100 100 72 94 5 55 44 7 98 100 100
98 68 96 62 30 80 80 83 26 26 96 100 100 100 100 99 98 99 100 100 88 84 92 68 24 63 95 100 98 98 82 31 5 5 5 23 50 100
79 95 44 60 49 100 96 64 85 79 100 100 100 100 100 100 97 99 100 100 100 100 99 94 88 95 99 100 100 100 100 75 49 36 20 5 5 5

GFSNE_prec_cloud_075.txt.gz
Cloud_Cover
99 100 100 99 100 100 100 100 100 100 100 82 95 100 100 100 100 100 100 100 100 100 100 100 100 100 100 100 100 100 100 100 100 100 100 100 100 100
96 100 100 96 53 55 69 98 100 100 100 100 100 98 100 91 100 100 100 100 100 100 100 100 100 100 100 100 100 100 100 100 100 100 100 100 100 100
80 75 82 46 76 81 100 100 97 100 100 100 100 100 100 100 100 100 100 100 100 100 100 100 100 100 100 100 100 100 100 100 100 100 100 100 100 100
100 84 100 100 100 100 100 100 100 97 100 100 96 100 100 100 100 100 100 100 100 100 100 100 100 100 100 100 100 100 100 100 100 100 100 100 100 100
86 100 99 97 100 98 96 71 46 78 100 91 100 100 100 100 100 100 100 100 100 100 100 100 100 100 100 100 100 94 100 100 100 100 100 100 50 100
81 67 100 100 100 69 75 26 40 100 40 72 100 100 100 100 100 100 100 100 100 100 95 85 94 100 100 100 100 100 100 100 100 100 100 100 99 62
100 100 100 100 98 62 8 5 5 10 25 58 100 100 87 89 79 69 76 44 20 6 5 5 29 90 100 100 98 100 100 100 100 100 100 97 78 100
47 65 63 14 30 74 79 29 70 8 6 35 16 14 5 5 8 6 5 5 5 14 40 99 98 96 56 89 100 99 99 99 99 99 61 100 100 100
5 5 4 4 5 5 5 5 4 5 5 5 5 5 10 44 32 7 6 11 22 66 28 62 26 5 5 5 5 5 5 5 10 44 40 67 30 12
5 5 5 5 12 5 5 5 5 5 5 5 5 5 5 5 5 5 5 5 5 5 5 69 5 5 5 5 5 5 46 50 9 5 6 5 7 23
2 5 5 5 16 20 5 18 12 5 5 6 5 16 25 18 62 23 78 61 9 5 5 14 8 14 5 5 5 70 9 5 5 5 5 5 7 83
5 5 34 54 53 51 44 22 5 5 5 5 5 5 5 5 5 6 6 35 65 38 19 44 34 17 34 5 7 5 5 0 5 5 5 8 66 100
9 39 49 55 10 5 5 5 15 6 5 5 5 5 5 5 5 5 20 60 90 97 76 99 98 99 89 50 6 5 5 5 5 4 5 5 6 20
26 70 48 46 5 5 19 56 74 46 7 8 5 7 9 7 65 99 100 100 100 96 95 100 97 100 100 100 90 6 5 5 8 5 16 5 5 5
80 30 5 5 5 5 5 31 7 8 5 6 25 41 51 32 31 96 100 100 100 100 100 100 100 100 100 100 92 97 100 21 12 8 38 15 6 12
31 6 5 5 5 5 5 5 5 5 6 16 51 27 76 100 100 100 100 100 99 93 92 100 100 100 100 95 95 100 100 98 30 87 99 13 6 5
5 5 5 5 5 5 5 5 15 56 54 55 99 100 100 100 100 100 100 100 100 93 64 18 87 98 100 100 100 96 100 100 94 76 30 80 34 6
5 28 38 5 66 79 26 32 44 82 100 88 100 100 100 100 100 98 100 100 98 91 78 64 62 90 68 6 11 59 75 100 54 6 9 100 66 16
5 5 5 49 90 100 96 50 55 53 70 100 100 100 100 100 100 99 98 100 94 69 64 61 94 99 100 98 5 8 48 12 53 7 5 71 82 11
5 5 61 57 34 56 88 55 34 7 55 100 100 100 100 100 95 94 100 100 100 96 100 82 86 93 100 93 100 49 5 5 5 53 54 12 15 29
9 42 37 17 76 39 29 29 40 32 33 84 100 100 100 100 100 99 100 100 99 100 100 100 36 94 97 100 99 22 70 5 5 75 91 98 100 100
13 69 99 90 92 53 19 9 62 58 28 11 6 89 89 98 100 100 100 100 100 99 100 100 65 100 100 100 99 94 100 98 50 72 73 69 98 100
47 33 70 29 21 5 12 43 57 38 51 33 35 49 55 99 100 100 100 100 100 100 100 98 83 95 100 100 100 98 100 100 100 100 88 20 5 5

GFSNE_prec_cloud_078.txt.gz
Cloud_Cover
100 100 100 100 100 100 94 96 100 100 100 96 100 42 54 98 83 99 100 100 100 100 100 100 100 100 100 100 100 100 100 100 100 100 100 100 100 100
92 100 100 100 100 88 57 61 86 100 100 100 100 100 85 99 100 100 100 100 100 100 100 100 100 100 100 100 100 100 100 100 100 100 100 100 100 100
100 100 100 100 100 95 57 89 100 98 100 100 100 100 94 100 100 100 100 100 100 100 100 100 100 100 100 100 100 100 100 100 100 100 100 100 100 100
100 100 100 100 100 100 100 100 100 100 41 80 91 100 75 100 100 100 100 100 100 100 100 100 100 100 100 100 100 100 100 100 100 100 100 100 100 100
100 100 100 99 83 100 93 82 90 21 52 86 96 99 92 100 100 100 100 100 100 100 100 100 100 100 100 100 100 100 100 100 100 100 100 100 100 100
100 100 100 100 100 90 12 9 13 10 5 32 100 100 89 66 89 83 100 100 100 95 97 100 100 100 98 90 100 100 100 100 100 100 100 100 100 100
100 100 100 100 95 64 6 5 5 5 21 17 14 11 5 5 6 5 17 22 23 17 14 6 5 5 5 5 23 92 94 99 76 87 100 100 100 100
100 70 5 6 28 42 44 37 5 5 5 15 68 5 5 5 5 5 16 14 23 8 5 5 5 5 5 5 5 5 5 14 5 7 12 48 89 100
100 5 5 5 5 5 5 6 7 14 24 5 5 5 5 5 5 7 5 5 5 5 5 5 5 5 5 5 5 5 5 5 7 17 26 89 98 85
6 5 5 5 7 5 5 6 6 5 5 5 5 5 5 5 5 5 5 5 5 5 5 71 5 5 5 5 5 5 20 77 29 5 5 5 5 6
5 5 5 5 5 8 5 5 5 5 6 7 5 5 5 8 19 46 6 49 37 5 5 17 5 12 5 5 5 100 100 41 5 5 5 5 7 19
5 5 8 7 8 20 8 5 5 5 5 5 2 5 5 6 20 11 19 70 68 8 8 63 67 38 47 5 5 5 5 5 5 5 5 5 14 10
81 47 6 35 23 5 5 5 14 5 5 5 4 5 5 5 50 38 38 41 82 83 78 90 93 99 92 63 6 5 5 5 5 4 5 5 5 27
100 29 18 42 6 5 5 5 70 5 5 5 5 10 41 8 46 86 89 100 99 98 96 100 98 98 100 100 89 7 5 5 19 39 22 5 5 5
66 43 44 17 5 5 5 5 5 5 5 5 29 51 50 66 100 100 100 100 100 100 99 100 100 96 96 99 93 97 100 79 70 36 39 41 10 5
52 58 18 5 5 5 5 5 5 5 5 15 55 20 76 100 100 100 100 100 100 96 84 99 100 100 97 100 96 86 96 98 45 75 97 54 8 5
43 27 14 6 5 5 5 5 5 5 5 35 13 8 89 100 100 100 100 100 95 95 67 6 92 100 96 99 100 90 68 45 14 98 92 66 22 6
5 10 43 9 5 12 6 5 5 10 6 16 18 85 88 100 100 100 100 100 98 73 68 56 74 81 95 100 100 100 91 7 30 98 53 100 61 5
84 40 20 39 9 5 8 60 50 5 18 74 16 91 100 100 100 100 100 100 86 95 99 98 99 99 100 100 100 100 100 53 46 63 29 6 9 5
58 54 66 95 100 15 5 44 43 52 73 61 72 25 97 100 100 100 99 92 88 81 96 71 96 100 98 94 100 100 100 26 5 5 10 10 5 27
100 87 26 31 34 19 25 9 30 60 74 55 62 63 41 78 99 100 96 95 100 99 100 100 83 100 89 100 99 91 62 38 38 7 25 97 95 73
96 59 51 43 57 42 6 16 42 48 66 66 60 75 67 69 75 100 97 99 97 99 93 99 100 100 94 100 72 14 7 98 83 100 98 88 100 100
76 90 77 59 10 6 64 56 16 35 55 35 50 59 60 84 92 87 100 100 100 100 100 100 72 74 100 100 100 98 75 100 100 97 71 100 96 11

GFSNE_prec_cloud_084.txt.gz
Cloud_Cover
100 100 100 100 100 100 100 97 97 100 100 100 100 100 100 97 100 100 100 99 43 100 100 100 100 100 100 100 98 100 100 100 100 100 100 100 100 100
100 100 100 100 100 100 100 91 100 100 100 100 100 100 100 100 100 100 100 100 100 100 100 100 100 100 100 100 100 100 100 100 100 100 100 100 100 100
100 100 100 100 100 100 86 100 100 100 100 100 100 100 99 96 84 96 100 100 100 100 100 100 100 100 100 78 100 100 89 100 100 100 100 100 100 100
100 100 100 100 100 100 100 100 100 100 100 100 100 88 70 84 85 88 74 50 90 100 100 100 98 100 100 99 89 99 100 100 100 48 100 80 96 100
100 99 99 100 100 100 100 100 100 100 100 95 94 78 74 100 77 79 10 62 77 77 62 85 84 100 97 67 100 96 95 76 100 100 100 100 100 97
100 100 100 100 100 100 100 100 100 100 100 100 67 38 85 30 20 22 13 5 5 5 5 5 5 5 5 5 5 5 5 5 5 36 100 100 97 53
100 100 100 100 100 100 100 100 100 61 57 25 13 11 6 5 4 5 5 5 0 0 0 0 0 0 1 1 3 0 0 1 5 5 5 11 29 68
100 100 100 100 100 100 100 100 67 42 8 5 13 1 0 0 1 5 5 5 5 2 0 0 0 0 5 5 5 5 5 5 5 5 5 92 100 100
100 100 100 100 100 100 100 98 45 34 12 5 5 4 1 2 14 54 5 5 3 2 5 0 1 3 3 5 11 62 23 13 6 16 20 63 100 100
100 100 100 100 100 100 92 93 18 10 5 3 5 2 5 5 48 9 5 5 5 5 5 5 5 4 5 5 9 87 100 52 19 37 88 39 11 10
100 100 100 56 86 100 29 18 8 3 5 5 5 5 5 23 21 13 29 13 6 5 5 6 6 5 5 5 5 5 8 69 29 87 80 49 56 24
98 100 100 93 74 6 20 5 54 62 5 5 9 12 33 15 51 5 5 43 10 61 61 64 70 48 48 5 5 6 9 5 5 5 5 10 6 5
100 100 85 79 49 84 28 46 5 5 8 37 46 24 30 33 5 5 5 46 99 94 98 99 100 100 98 81 59 25 27 7 6 8 73 100 21 14
56 80 78 90 36 5 5 5 30 7 23 17 6 6 5 11 70 52 62 84 91 81 97 99 95 99 100 100 92 56 83 87 50 87 100 100 100 100
20 9 7 5 5 5 5 5 18 5 5 5 5 5 43 65 19 29 87 68 73 85 75 92 95 100 100 100 100 99 100 82 60 93 96 100 100 100
24 5 5 5 6 9 5 5 5 5 5 5 40 54 59 84 100 100 100 100 100 100 100 79 6 72 100 100 100 100 97 98 47 74 91 89 100 100
80 18 44 50 55 43 49 42 26 52 63 63 56 58 78 92 98 100 100 100 100 100 100 100 100 89 81 88 92 78 80 80 89 100 100 100 79 85
8 20 40 31 66 81 68 42 55 62 55 37 24 62 82 95 96 100 100 100 100 100 100 100 100 99 95 51 21 47 78 83 83 100 100 100 100 55
54 28 53 69 99 90 53 64 68 89 67 73 57 89 80 99 100 100 100 100 100 100 100 100 100 100 100 89 56 12 60 94 100 95 83 76 79 100
25 70 95 93 100 100 100 100 100 87 44 90 98 100 75 88 92 97 100 99 100 100 100 100 100 100 100 98 100 93 81 46 87 81 6 82 64 31
100 100 100 100 100 100 100 100 100 99 100 97 97 92 90 98 79 93 98 100 100 100 100 98 96 100 100 100 100 33 9 92 50 9 44 91 100 85
100 100 100 100 100 100 100 100 100 100 94 85 97 93 71 100 99 100 83 99 100 100 99 92 97 100 100 100 97 95 81 88 89 55 98 83 87 97
100 100 100 100 100 100 100 100 100 100 100 99 100 96 100 100 100 100 27 70 100 98 100 93 100 100 100 100 100 100 100 85 93 86 41 48 26 82

GFSNE_prec_cloud_087.txt.gz
Cloud_Cover
100 100 100 100 100 100 100 100 99 100 98 100 99 100 100 100 100 100 100 100 100 100 100 100 100 100 100 100 100 100 100 100 100 100 100 100 100 100
100 100 100 100 100 100 100 100 97 98 100 100 100 100 100 100 100 100 100 100 100 100 100 100 100 100 100 100 100 100 100 100 100 100 100 100 100 100
100 100 100 100 100 100 100 100 100 99 100 100 100 100 100 100 100 74 94 100 100 100 100 100 99 74 93 64 100 100 100 100 100 43 100 100 100 100
100 100 100 100 100 100 100 62 80 97 100 100 100 100 100 100 100 58 26 26 28 84 100 100 100 63 33 100 100 100 100 98 99 100 56 100 100 100
100 100 100 100 100 97 100 100 100 100 100 100 99 100 100 90 17 27 13 4 0 4 2 5 20 5 5 100 99 56 10 5 5 31 44 18 5 5
100 99 66 100 88 100 100 100 100 100 100 100 100 100 58 82 6 5 5 5 5 4 5 5 5 5 5 5 5 5 5 5 5 5 5 5 5 4
100 96 74 100 99 100 100 100 100 100 100 100 100 97 76 64 5 5 4 0 0 5 5 5 5 5 1 0 0 0 0 0 2 5 5 5 5 5
99 96 100 100 100 100 100 100 100 100 100 100 100 85 23 21 5 5 0 0 5 5 5 5 5 5 2 0 0 4 5 5 5 5 5 6 92 100
95 100 100 100 100 100 100 100 100 100 76 100 90 54 28 5 5 5 5 5 9 6 5 5 5 0 0 0 1 2 5 5 5 5 16 14 29 90
99 100 100 100 100 100 100 100 100 100 94 27 5 4 6 5 5 5 5 5 5 5 5 5 4 0 0 2 2 0 5 7 5 5 5 11 99 100
100 100 100 100 100 100 100 100 100 60 5 5 5 5 5 5 5 5 18 5 5 5 5 5 6 5 5 5 5 11 26 5 5 5 17 92 64 19
100 100 100 100 100 100 100 100 53 41 65 28 5 5 5 5 5 5 5 7 8 27 22 5 36 18 9 5 5 5 5 5 5 5 9 22 49 7
100 100 100 100 100 100 68 19 87 5 5 5 5 5 4 5 5 5 5 37 100 88 76 44 98 100 92 79 5 5 6 5 5 5 9 30 48 36
100 100 90 94 100 24 20 23 6 4 0 0 5 5 5 5 9 5 24 34 100 76 79 100 71 94 100 100 85 7 34 62 19 50 100 100 100 79
100 100 100 100 81 34 5 5 5 5 9 11 36 49 74 89 31 58 80 98 89 85 90 86 58 98 100 100 99 91 100 70 100 94 100 100 100 97
100 100 100 100 100 100 100 83 6 6 42 90 86 98 81 40 78 100 100 100 100 100 100 100 78 30 91 100 100 100 99 100 81 72 62 99 100 16
100 100 100 100 100 100 100 82 6 25 48 63 91 99 91 58 66 100 100 100 100 100 100 100 100 100 100 100 100 100 54 68 72 95 100 100 100 96
100 98 95 53 64 60 43 24 76 76 74 100 100 100 64 76 77 75 100 100 100 100 100 100 100 99 100 100 100 86 66 15 99 100 100 100 65 6
100 99 78 81 98 72 95 100 100 100 100 100 100 100 88 99 82 37 74 91 99 100 100 100 100 100 100 100 97 7 42 14 82 100 95 84 64 5
100 100 100 100 100 100 100 100 100 100 100 100 100 100 100 76 84 70 100 100 99 58 99 93 94 100 100 97 92 64 95 91 59 20 5 5 5 5
100 100 100 100 100 100 100 100 100 100 100 100 100 100 100 100 100 100 100 91 99 96 100 60 18 98 100 100 99 82 72 5 63 97 23 96 99 87
100 100 100 100 100 100 100 100 100 100 100 100 100 100 100 100 100 100 100 91 98 100 21 5 68 96 100 99 92 93 84 39 6 86 96 100 99 94
100 100 100 100 100 100 100 100 100 100 100 100 100 100 100 100 100 100 100 99 5 5 45 100 100 96 98 100 99 98 100 94 100 71 5 11 94 100

GFSNE_prec_cloud_090.txt.gz
Cloud_Cover
100 100 100 100 100 100 100 100 100 100 100 100 93 96 93 100 79 100 100 100 100 100 100 100 100 100 98 100 100 100 100 100 100 100 100 100 99 100
100 100 100 100 100 100 100 100 100 100 100 100 100 96 100 100 97 100 100 100 100 100 100 100 100 100 91 100 100 100 100 100 100 100 100 59 98 85
100 100 100 100 100 100 100 100 100 100 100 100 92 100 100 100 100 100 100 100 100 100 100 100 100 43 62 38 74 100 100 100 100 86 100 93 99 99
100 100 100 100 100 100 100 100 100 100 100 100 100 100 100 100 100 100 100 100 100 48 100 76 27 48 4 5 5 42 96 69 100 44 100 90 100 100
100 100 100 100 100 100 100 97 49 55 48 99 100 100 100 100 100 100 100 100 28 5 4 1 0 1 25 90 89 42 100 90 80 17 5 5 8 31
100 100 100 100 89 97 24 89 100 100 94 100 100 100 100 100 100 100 100 53 5 4 1 1 3 5 5 4 5 5 5 5 5 5 5 5 5 5
100 100 71 74 79 91 89 99 100 100 100 100 100 100 100 100 100 98 30 5 4 0 0 1 5 5 5 5 5 5 5 1 0 0 5 5 5 4
100 100 100 100 100 99 79 95 100 100 100 100 100 100 100 100 100 5 5 5 5 4 5 5 5 5 5 5 5 5 5 5 4 5 5 5 4 5
100 100 98 95 99 100 100 100 100 100 100 100 100 100 100 99 35 8 5 5 5 2 5 5 5 5 0 4 5 4 5 5 5 5 15 5 26 90
100 100 99 99 100 97 100 100 100 100 100 100 100 100 100 69 18 16 5 3 3 1 5 5 5 5 5 5 5 5 4 9 7 5 6 5 5 79
100 100 100 100 100 100 100 100 100 100 100 100 100 99 54 5 5 4 5 5 5 5 5 5 5 5 5 5 5 7 18 5 5 5 5 13 31 100
100 100 100 100 100 100 100 100 100 100 100 100 88 5 5 5 4 3 5 58 10 8 5 7 7 9 34 25 8 5 5 5 5 5 5 18 41 86
100 100 100 100 100 100 100 100 100 93 51 84 60 5 5 5 7 14 6 10 5 30 62 24 47 45 73 59 5 5 5 5 5 5 5 19 91 100
100 100 100 100 100 100 100 100 100 100 100 100 77 71 5 37 29 11 10 38 36 58 21 100 72 66 94 100 58 10 5 5 8 76 100 100 100 100
100 100 100 100 100 100 100 100 100 100 100 100 100 100 11 20 24 34 77 99 98 90 68 94 85 58 83 97 93 81 95 33 11 100 100 100 100 100
100 100 100 100 100 100 100 100 100 100 100 100 99 78 24 55 76 100 100 100 100 87 97 100 100 94 88 59 98 100 100 89 6 16 77 100 100 100
100 100 100 100 100 100 100 100 89 41 18 61 98 100 98 100 100 100 100 100 100 83 87 99 100 100 100 100 98 99 99 48 6 17 99 100 93 100
100 100 100 100 100 100 100 100 86 60 90 98 100 100 100 100 100 100 100 100 100 98 90 94 100 100 92 66 19 84 95 71 30 70 100 100 92 13
100 100 100 100 100 100 100 100 100 100 100 100 100 100 100 100 100 100 100 100 100 72 85 98 100 100 97 98 84 7 80 72 98 52 6 8 38 5
100 100 100 100 100 100 100 100 100 100 100 100 100 100 100 100 100 98 100 100 95 95 100 88 52 64 57 60 51 30 10 56 55 46 15 5 44 5
100 100 100 100 100 100 100 100 100 100 100 100 100 100 100 100 100 99 97 100 100 95 96 54 8 10 66 99 98 100 79 5 5 56 83 95 96 64
100 100 100 100 100 100 100 100 100 100 100 100 100 100 100 81 80 86 100 100 60 55 39 46 7 43 95 100 100 100 97 5 5 5 16 70 99 95
100 100 100 100 100 100 100 100 100 100 100 100 100 100 81 100 98 99 96 75 80 72 52 30 50 65 96 98 98 87 81 49 5 18 5 5 5 52

GFSNE_prec_cloud_093.txt.gz
Cloud_Cover
100 100 100 100 100 100 100 100 100 100 100 100 100 100 100 100 97 95 99 100 100 100 92 100 100 100 100 100 100 100 100 100 100 100 100 93 100 100
100 100 100 100 100 100 100 100 100 100 100 100 100 100 100 100 100 76 99 100 100 100 100 100 100 100 100 100 100 98 100 100 100 96 49 100 100 100
100 100 100 100 100 100 100 100 100 100 100 100 100 100 100 100 100 100 100 100 100 100 100 100 100 100 97 71 98 100 100 100 100 100 100 100 100 96
100 80 81 98 100 100 100 100 100 100 100 100 100 100 100 100 94 96 100 100 100 100 100 100 100 71 3 2 3 5 8 100 88 100 100 100 100 99
33 99 37 91 100 98 79 100 96 92 100 100 100 100 100 100 100 100 100 100 100 100 100 90 72 20 96 96 85 13 5 5 33 98 100 91 7 17
100 100 100 100 97 100 94 99 100 48 79 96 100 100 67 100 100 100 100 100 100 100 100 19 8 1 1 3 5 5 5 5 5 5 3 5 4 5
100 100 100 100 100 100 100 38 30 95 100 100 100 100 99 100 100 100 100 100 100 100 87 28 0 0 0 1 4 5 5 5 5 1 0 3 0 0
100 100 100 100 100 99 100 100 100 100 100 100 100 100 100 100 100 100 100 100 100 98 24 2 0 0 2 5 5 5 5 5 5 4 5 5 4 5
100 100 100 100 97 100 100 100 99 100 99 100 100 100 100 100 100 100 100 100 60 17 4 5 4 5 5 5 5 5 5 5 5 5 5 5 5 5
100 100 100 100 100 100 100 98 100 100 100 100 100 100 100 100 100 100 100 80 6 4 5 5 5 5 6 5 5 5 11 8 7 5 12 5 5 5
83 93 86 100 100 100 100 100 100 100 100 100 100 100 100 100 100 100 50 5 5 5 5 9 63 21 12 5 5 9 7 5 5 5 5 5 6 36
88 86 99 100 100 100 100 100 100 100 100 100 100 100 100 100 100 100 35 58 68 30 40 23 30 34 13 5 8 5 5 5 5 5 25 15 16 98
100 100 100 100 100 100 100 100 100 100 100 100 100 100 100 100 100 93 6 5 62 71 60 42 80 100 64 39 7 6 5 5 12 92 92 6 49 93
100 100 100 100 100 100 100 100 100 100 100 100 100 100 100 100 81 96 22 48 45 14 32 51 98 100 94 69 19 10 5 28 81 76 80 98 99 100
100 100 100 100 100 100 100 100 100 100 100 100 100 100 100 48 85 76 64 75 81 75 98 100 100 100 100 96 73 55 74 18 65 68 98 100 99 100
100 100 100 100 100 100 100 100 100 100 100 100 100 99 80 99 99 92 76 92 99 100 100 100 100 100 100 100 96 69 25 83 43 11 5 5 78 100
100 100 100 100 100 100 100 100 100 100 100 100 100 100 100 100 100 74 97 100 100 100 89 100 100 100 100 90 96 87 97 100 56 17 5 40 47 52
100 100 100 100 100 100 100 100 100 100 100 100 100 100 100 100 93 100 100 100 100 100 86 100 100 100 100 99 98 83 98 100 64 43 50 85 89 13
97 100 100 100 100 100 100 100 100 100 100 100 100 100 100 100 100 100 100 100 100 100 100 100 76 100 100 100 83 5 28 71 76 81 86 74 90 6
100 98 100 100 100 100 100 100 100 100 100 100 100 100 100 100 100 100 100 100 100 100 100 72 86 100 91 75 98 10 5 73 63 63 14 5 5 5
100 100 100 100 100 100 100 100 100 100 100 100 100 100 100 100 100 100 100 100 100 93 55 52 95 100 68 84 90 52 5 5 7 45 76 94 91 28
100 100 100 100 100 100 100 100 100 100 100 100 100 100 100 100 100 100 100 100 87 97 66 72 84 98 95 78 73 88 79 67 5 49 10 77 96 94
100 100 100 100 100 100 100 100 100 100 100 100 98 99 100 100 100 100 100 100 100 100 85 90 81 72 52 18 84 100 100 56 8 91 12 5 5 60

GFSNE_prec_cloud_096.txt.gz
Cloud_Cover
100 100 100 100 100 100 100 100 100 100 100 100 100 100 100 100 100 100 100 100 100 100 82 100 100 100 100 100 100 100 100 100 100 100 100 100 94 98
100 100 100 100 100 100 100 100 100 100 100 100 100 100 100 100 100 100 100 100 100 100 76 86 100 100 100 100 100 100 100 100 100 100 100 100 100 51
82 77 46 73 99 100 100 100 100 100 98 100 100 100 100 100 100 72 97 100 100 100 100 100 100 100 100 100 100 100 94 100 100 100 100 65 78 98
94 75 94 99 72 100 100 100 100 100 100 100 100 100 100 100 100 100 94 98 100 100 100 100 100 100 100 100 95 94 100 100 100 100 100 100 100 100
100 100 96 100 100 100 100 100 100 100 100 100 100 100 100 100 100 92 97 100 100 100 100 100 100 100 100 100 98 13 5 6 5 13 5 36 89 10
78 100 96 100 100 100 100 91 100 77 100 100 100 100 100 91 100 100 92 100 93 100 100 100 100 100 100 28 5 4 5 5 5 5 5 5 5 5
93 100 100 100 100 100 100 99 100 100 60 100 100 100 100 100 100 100 100 100 100 100 100 100 100 97 18 42 2 0 5 5 5 5 5 5 5 5
100 100 100 100 100 100 100 93 88 44 94 85 90 100 100 100 100 100 100 100 100 100 100 100 100 58 5 5 4 5 5 5 5 5 5 5 5 5
100 100 100 100 100 100 100 100 100 100 100 100 100 96 100 100 100 100 100 100 100 100 100 100 93 6 5 5 6 33 7 5 5 5 5 5 5 5
100 100 100 100 100 98 99 100 100 100 100 100 100 100 100 100 100 100 100 100 100 100 100 57 5 5 5 41 69 22 48 31 6 5 15 5 5 5
100 100 100 98 38 98 100 100 100 100 100 100 100 100 100 100 100 100 100 100 100 100 100 8 6 7 55 52 66 82 10 22 37 7 5 5 5 5
90 36 23 92 100 100 100 100 100 100 100 100 100 100 100 100 100 100 100 100 100 90 52 7 11 14 33 49 73 66 51 37 36 6 18 6 5 14
83 82 87 97 100 100 100 100 100 100 100 100 100 100 100 100 100 100 100 100 100 73 50 53 75 53 58 66 65 50 47 45 97 86 22 5 12 93
37 84 100 100 100 100 100 100 100 100 100 100 100 100 100 100 100 100 100 100 100 93 45 66 68 62 73 70 77 39 56 99 76 91 7 5 51 100
44 100 96 100 100 100 100 100 100 100 100 100 100 100 100 100 100 100 100 100 100 98 63 59 75 99 92 100 98 67 93 62 89 66 41 47 75 75
100 100 100 100 100 100 100 100 100 100 100 100 100 100 100 100 100 100 100 100 100 100 78 100 100 100 100 100 100 63 60 61 55 68 18 16 7 6
100 97 98 100 100 100 100 100 100 100 100 100 100 100 100 100 100 100 100 100 100 100 100 100 92 96 100 100 100 80 23 81 98 36 32 14 8 5
100 100 100 100 100 100 100 100 100 100 100 100 100 100 100 100 100 100 100 100 100 100 100 100 100 100 100 100 100 68 69 100 100 73 45 95 68 5
99 100 100 100 100 100 100 100 100 100 100 100 100 100 100 100 100 100 100 100 100 100 100 100 100 100 100 100 90 32 89 45 57 83 23 37 97 47
100 100 100 100 100 100 100 100 100 100 100 100 100 100 100 100 100 100 100 100 100 94 99 99 97 100 100 100 100 38 11 37 68 87 79 63 100 100
100 100 100 100 100 100 100 100 100 100 100 100 100 100 100 100 100 100 100 81 82 89 82 74 94 100 100 100 99 71 14 6 5 25 48 95 100 100
100 100 100 100 100 98 100 100 100 100 100 100 100 100 100 100 100 100 100 77 74 91 100 100 91 100 100 100 99 86 61 18 5 5 6 90 100 100
100 100 100 100 100 100 100 100 100 100 100 100 100 100 98 100 100 100 100 100 97 78 97 90 100 100 100 100 100 100 100 96 100 41 58 55 11 54

GFSNE_prec_cloud_099.txt.gz
Cloud_Cover
99 99 100 100 100 100 100 100 100 100 100 100 100 100 100 100 100 99 98 100 100 100 100 97 99 100 100 100 100 100 100 100 100 100 100 100 100 100
100 100 99 96 97 92 100 100 100 97 88 99 100 100 100 100 100 100 61 100 100 100 100 100 100 100 100 100 100 100 100 100 100 100 100 100 100 100
100 100 100 100 100 93 100 100 100 100 100 100 100 100 100 100 100 100 100 100 100 100 100 100 100 100 100 100 100 100 100 100 100 100 100 100 100 100
98 100 100 100 100 100 100 99 100 100 100 100 100 100 100 100 100 100 100 100 100 100 100 100 100 100 100 100 100 100 100 100 100 99 98 99 100 73
26 92 100 99 100 100 100 100 100 100 100 100 100 100 100 100 100 100 100 100 100 100 100 100 100 100 100 100 100 100 100 79 90 100 100 94 94 87
41 45 71 57 100 100 100 100 100 100 100 100 100 100 100 100 100 100 100 100 100 100 100 99 100 100 100 100 100 100 100 5 5 6 6 5 5 5
87 80 86 100 100 100 100 100 100 50 89 100 100 100 100 100 100 100 100 100 100 100 100 100 100 100 100 100 100 99 5 5 5 5 5 5 5 5
100 100 100 100 100 100 100 100 100 98 77 100 100 100 100 100 100 100 100 100 100 100 100 100 100 100 100 100 100 12 5 5 21 37 53 11 5 5
100 100 100 100 100 100 100 100 100 86 100 100 100 100 100 100 100 100 98 100 100 100 100 100 100 100 100 100 5 5 5 38 86 62 18 5 5 6
100 100 100 100 100 100 100 100 100 100 100 98 98 98 100 100 100 100 100 100 100 100 100 100 100 100 100 91 30 32 5 11 77 40 7 9 35 58
100 100 100 100 100 100 100 70 69 68 100 100 100 100 100 100 100 100 100 100 100 100 100 100 100 100 100 23 43 98 100 98 73 65 15 6 5 5
100 100 100 99 94 75 46 96 100 100 100 100 100 100 100 100 100 100 100 100 100 100 100 100 100 100 100 51 42 60 72 92 77 19 33 49 76 21
34 14 5 5 49 70 100 100 100 100 100 100 100 100 100 100 100 100 100 100 100 100 100 100 100 100 75 99 78 58 58 61 57 98 100 89 59 13
5 5 7 40 70 99 99 100 100 100 100 100 100 100 100 100 100 100 100 100 100 100 100 100 100 100 100 100 84 55 87 97 100 99 100 86 5 21
34 31 66 67 90 100 87 98 100 100 100 100 100 100 100 100 100 100 100 100 100 100 100 100 100 100 100 100 70 86 100 100 100 100 100 31 10 36
100 69 63 90 85 95 100 100 100 100 100 100 100 100 100 100 100 100 100 100 100 100 100 100 100 100 100 100 100 100 100 100 100 100 83 43 38 6
92 79 64 76 75 96 94 100 100 100 100 100 100 100 100 100 100 100 100 100 100 100 100 100 100 100 100 100 100 100 100 100 100 95 52 76 66 36
73 53 90 85 90 100 100 100 100 100 99 100 100 100 100 100 100 100 100 100 100 100 100 100 100 100 100 100 100 100 100 100 90 100 85 100 96 36
63 88 100 100 100 100 100 100 100 100 100 100 100 100 100 100 100 100 100 100 100 100 100 100 100 100 100 100 100 100 89 74 43 96 64 66 90 8
100 99 100 100 100 100 100 100 100 100 100 100 100 100 100 100 100 100 100 100 100 100 100 100 100 100 100 100 100 55 86 61 78 99 97 40 5 5
100 100 90 100 100 100 100 100 100 100 100 100 100 100 100 100 100 100 100 100 100 100 100 100 100 100 100 100 99 84 88 100 100 92 75 71 69 7
100 100 100 99 100 100 100 100 100 100 100 100 100 100 100 100 100 100 100 100 100 100 100 100 100 100 100 100 100 99 86 100 74 99 70 21 50 71
100 100 100 100 100 100 100 100 100 100 100 100 100 100 100 100 100 100 100 100 100 100 100 100 88 100 100 100 100 100 100 80 95 88 74 98 69 73

GFSNE_prec_cloud_102.txt.gz
Cloud_Cover
100 93 81 100 82 66 89 96 100 96 100 100 100 100 100 100 100 100 100 100 100 100 100 100 100 100 100 100 100 100 83 95 87 90 100 99 91 99
70 97 95 67 99 96 92 100 100 100 100 100 100 100 100 100 100 100 100 100 100 100 100 100 100 100 100 100 100 100 100 100 100 100 100 100 96 77
100 94 49 90 100 92 100 78 99 91 100 100 100 100 100 100 100 100 100 100 100 100 100 100 100 100 100 100 100 100 100 100 100 100 100 100 100 100
7 8 6 20 99 33 11 98 100 94 100 100 100 100 100 100 100 100 100 100 100 100 100 100 100 100 100 100 100 100 100 100 100 100 100 100 100 100
40 64 5 5 16 27 95 70 68 87 95 100 100 100 100 100 100 100 100 100 100 100 100 100 100 100 100 100 100 100 100 100 100 100 100 100 82 99
65 56 71 5 5 6 98 100 100 100 100 100 100 100 100 100 100 100 100 100 100 100 100 100 100 100 100 100 100 100 100 100 100 100 16 18 52 79
68 58 81 77 95 94 98 100 100 100 100 100 100 100 100 100 100 100 100 100 100 100 100 100 100 100 100 100 100 100 100 100 100 65 5 5 14 12
80 83 86 100 100 100 100 100 100 100 100 100 100 100 100 100 100 100 100 100 100 100 100 100 100 100 100 100 100 100 100 100 100 5 5 10 28 43
97 94 99 100 100 100 100 100 100 100 100 100 100 100 100 99 100 90 96 100 100 100 100 100 100 100 100 100 100 100 100 100 93 5 27 88 68 8
100 100 100 100 100 100 100 100 100 100 100 100 100 99 80 98 97 99 100 100 100 100 100 100 100 100 100 100 100 100 100 100 20 13 81 100 82 51
100 100 100 100 100 100 100 100 100 100 100 100 82 61 100 100 100 100 100 100 100 100 100 100 100 100 100 100 100 100 100 100 52 21 93 100 86 85
100 100 100 100 100 100 100 99 49 17 38 99 100 89 90 100 100 100 100 100 100 100 100 100 100 100 100 100 100 100 100 100 36 5 84 100 100 95
100 95 86 34 5 5 5 5 7 5 10 48 96 99 100 100 100 100 100 100 100 100 100 100 100 100 100 100 100 100 100 100 63 57 97 100 100 70
16 10 6 5 54 5 5 78 44 29 82 82 73 93 98 100 100 100 100 100 100 100 100 100 100 100 100 100 100 100 100 100 93 99 100 100 100 100
37 94 41 24 51 34 62 71 99 71 97 88 89 100 100 100 100 100 100 100 100 100 100 100 100 100 100 100 100 100 100 100 100 100 100 100 100 100
99 100 100 92 82 91 90 92 71 88 58 95 90 100 100 100 100 100 100 100 100 100 100 100 100 100 100 100 100 100 100 100 100 100 100 100 100 100
100 86 82 82 93 96 85 92 84 88 95 91 100 100 100 100 100 100 100 100 100 100 100 100 100 100 100 100 86 97 100 100 100 100 100 100 100 100
52 79 58 47 7 90 93 68 100 100 99 100 92 99 100 100 100 100 100 100 100 100 100 100 100 100 100 100 100 97 100 100 100 100 100 100 85 100
39 29 39 65 77 99 95 100 100 100 100 99 98 100 100 100 100 100 100 100 100 100 100 100 100 100 100 100 100 100 100 100 100 100 100 100 91 98
80 78 66 93 92 100 99 100 100 100 100 100 100 100 100 95 100 100 100 100 100 100 100 100 100 90 100 100 100 100 99 100 100 98 98 72 45 62
100 100 94 100 100 100 100 100 100 100 100 100 100 100 100 100 100 100 100 100 100 100 100 100 100 100 100 100 100 100 86 100 100 100 83 72 90 92
100 96 98 99 100 100 100 100 99 95 100 100 100 100 100 100 100 100 100 100 100 100 100 100 100 100 100 100 100 100 99 89 93 100 100 81 100 100
100 100 100 100 100 100 96 81 91 100 100 100 100 100 100 100 100 100 100 100 100 100 100 100 100 100 100 100 100 100 100 100 96 90 100 78 100 100

GFSNE_prec_cloud_105.txt.gz
Cloud_Cover
100 100 100 100 100 100 100 98 100 67 29 66 35 70 84 100 100 100 100 100 100 100 97 100 100 100 100 100 100 97 100 100 100 100 100 100 100 100
100 100 84 7 5 11 36 49 99 100 99 94 86 87 96 100 100 100 100 100 100 98 100 100 100 100 100 100 100 100 100 100 91 94 100 100 100 100
43 37 18 9 66 61 45 53 71 94 100 100 99 100 100 100 100 100 100 100 100 100 100 100 100 100 100 100 100 100 100 100 100 100 100 100 100 100
56 20 7 90 56 6 15 36 46 99 100 100 100 100 100 100 100 100 100 100 100 100 100 100 100 100 100 100 100 100 100 100 100 100 100 100 100 100
44 87 6 5 5 5 5 32 74 64 100 100 100 100 100 100 100 100 100 100 100 100 100 100 100 100 100 100 100 100 100 100 100 100 100 100 100 100
5 2 1 2 0 3 3 16 100 100 100 100 100 100 100 100 100 100 100 100 100 100 100 100 100 100 100 100 100 100 100 100 100 100 100 100 100 93
0 0 0 0 0 39 22 50 99 100 100 100 100 100 100 100 100 100 100 100 100 100 68 100 100 100 100 100 100 100 100 100 100 100 100 100 100 24
1 19 72 86 91 100 100 100 100 100 100 100 100 100 100 100 100 100 100 100 100 47 52 44 83 100 100 100 100 100 100 100 100 100 100 100 99 5
56 100 100 100 100 100 100 100 100 100 99 100 100 100 100 100 100 100 100 100 100 76 84 100 100 100 100 100 100 100 100 100 100 100 100 100 95 8
84 100 100 100 100 100 100 100 100 100 100 100 100 100 100 100 53 91 100 100 98 100 100 100 100 100 100 100 100 100 100 100 100 100 100 100 36 8
100 100 100 100 100 100 87 98 100 100 100 100 100 100 100 37 86 93 99 97 100 100 100 100 100 100 100 100 100 100 100 100 100 100 100 99 93 62
100 100 100 100 100 95 96 99 100 100 85 67 73 16 6 29 98 100 100 100 100 100 100 100 100 100 100 100 100 100 100 100 100 100 100 100 94 52
100 100 100 98 99 43 16 5 5 10 7 15 5 5 51 61 90 94 100 100 100 100 100 100 100 100 100 100 100 100 100 100 100 100 100 100 100 94
100 82 41 28 6 25 35 25 8 85 66 45 32 60 97 100 98 100 100 100 100 100 100 100 100 100 100 100 100 100 100 100 100 100 100 100 100 95
100 85 19 59 53 16 20 20 43 75 82 59 80 96 100 100 87 100 100 99 100 96 100 100 100 100 100 100 100 100 100 100 100 100 100 100 100 98
100 76 94 72 71 71 35 31 40 97 78 70 81 78 83 89 100 98 100 100 99 100 100 100 100 100 100 100 100 100 100 100 100 100 100 100 100 100
100 73 100 100 81 78 36 11 11 56 87 99 98 91 99 99 99 100 100 95 100 100 100 100 100 100 100 100 100 100 100 100 100 100 99 96 100 100
98 92 96 74 52 24 12 45 50 45 85 82 94 88 88 99 100 100 100 100 100 100 100 100 100 100 100 99 96 100 100 100 100 100 100 97 66 100
100 96 35 57 92 81 64 54 99 85 100 99 100 100 100 100 100 100 100 100 96 91 100 100 100 100 100 88 100 100 100 96 100 100 100 100 54 99
90 82 86 100 100 100 100 100 100 88 73 98 100 100 100 93 99 100 100 100 100 99 100 100 100 79 98 100 100 100 83 91 100 100 100 100 100 63
93 100 100 100 99 100 100 100 100 83 100 91 76 62 53 66 100 98 100 98 100 100 100 99 100 100 100 100 100 100 94 86 100 100 100 100 100 81
100 100 100 100 100 99 100 100 100 89 92 99 90 81 70 62 100 100 97 92 87 100 100 98 66 99 100 100 100 100 100 88 88 100 100 100 100 100
100 100 100 100 100 100 100 100 100 98 89 95 92 81 75 78 93 98 100 100 100 100 100 100 100 89 100 100 100 100 100 100 81 100 100 100 100 100

GFSNE_prec_cloud_108.txt.gz
Cloud_Cover
100 100 100 100 99 100 100 100 100 100 100 97 54 67 100 86 98 100 100 100 100 100 100 100 100 100 100 100 100 100 100 100 100 100 91 100 100 100
100 100 100 100 100 100 97 73 93 100 35 29 58 62 99 100 100 100 100 100 100 100 100 83 100 100 100 100 100 100 100 100 100 100 100 100 100 81
100 98 100 93 100 38 36 23 84 100 100 96 100 100 92 100 100 100 100 100 100 100 100 100 100 100 100 100 100 100 100 100 100 100 100 100 100 100
100 100 96 96 27 83 30 71 94 100 96 90 99 100 100 100 100 100 100 100 100 100 100 100 100 100 100 100 100 100 100 100 100 100 100 100 100 100
100 100 24 95 98 65 18 50 68 53 73 100 100 100 100 100 100 100 100 100 100 100 100 100 100 99 100 100 100 100 100 100 100 100 100 100 100 100
100 100 99 58 76 31 35 33 61 60 53 100 100 100 100 100 100 100 100 100 100 100 100 100 100 22 100 100 100 100 100 100 100 100 100 100 100 100
100 100 100 85 1 3 4 75 47 26 98 100 100 100 100 100 100 100 100 100 100 100 100 92 10 23 75 100 100 100 100 100 100 100 100 100 100 100
57 49 64 21 1 0 32 46 41 84 99 100 100 100 100 100 100 100 100 100 100 100 100 39 100 100 100 100 100 74 100 100 100 100 100 100 100 100
21 29 8 7 91 27 30 100 97 100 98 100 100 100 100 100 100 100 100 100 100 100 26 95 90 100 100 100 100 100 100 100 100 100 100 100 100 100
35 97 46 62 87 83 82 61 67 100 100 100 100 100 100 100 100 100 100 100 100 100 90 99 99 100 100 100 100 100 100 100 100 100 100 100 100 100
5 80 76 100 100 100 100 56 44 98 100 100 100 100 100 100 100 96 97 100 100 77 96 100 100 100 100 100 100 100 100 100 100 100 100 100 100 100
87 97 100 100 100 91 97 100 59 60 100 100 97 99 100 100 92 23 39 83 38 58 70 85 77 100 100 100 100 100 100 100 100 100 100 100 100 100
100 100 95 100 100 100 78 100 89 39 47 12 5 23 5 21 5 29 64 75 99 64 50 91 100 100 100 100 100 100 100 100 100 100 100 100 100 100
100 66 72 80 78 100 69 95 94 65 17 18 8 6 70 98 28 62 39 77 100 100 96 98 94 77 99 100 100 100 100 100 100 100 100 100 100 100
100 85 98 70 48 17 56 57 33 5 20 30 61 13 38 100 91 59 95 97 95 93 99 100 90 75 98 99 100 100 100 100 100 100 100 100 100 100
100 100 100 72 22 22 12 11 17 5 42 66 64 21 44 95 81 86 74 65 92 100 100 89 87 100 100 100 100 100 100 100 100 100 100 100 100 100
100 99 100 32 59 11 48 17 5 8 28 5 14 58 55 68 95 96 87 99 94 84 91 100 100 100 100 100 100 100 100 100 100 100 100 100 100 99
53 100 100 74 87 57 96 60 5 14 47 30 50 58 54 34 84 100 100 100 100 100 100 100 100 100 100 100 100 100 100 100 100 100 92 90 65 96
71 100 100 83 29 59 42 34 14 87 72 37 26 15 11 78 100 100 100 100 100 100 100 100 100 100 100 100 99 100 100 100 89 100 100 72 38 85
100 99 87 94 30 5 8 35 100 100 100 85 89 88 81 99 100 100 100 100 100 100 100 100 100 100 100 100 100 100 100 100 100 100 100 99 12 9
100 100 86 73 92 87 76 93 74 82 91 100 100 96 72 100 100 98 90 95 97 92 100 100 97 100 100 100 100 100 84 100 100 100 100 100 99 57
100 100 100 100 100 97 88 82 78 88 94 99 87 83 85 71 59 72 78 81 73 82 99 88 93 93 100 100 100 100 100 100 99 100 100 100 100 97
100 100 100 100 100 100 100 100 100 100 100 100 100 100 99 100 100 92 80 82 94 98 100 100 97 88 60 97 100 100 100 92 95 95 100 100 100 100

GFSNE_prec_cloud_111.txt.gz
Cloud_Cover
100 100 100 100 100 100 100 100 100 100 100 100 100 100 100 100 94 99 90 100 100 100 100 100 100 100 100 100 100 100 100 100 100 100 100 100 98 100
100 100 100 72 100 100 98 100 100 84 48 60 100 100 100 60 80 100 100 100 100 100 100 100 100 97 94 98 100 100 100 100 100 95 100 100 100 100
99 100 100 87 100 77 94 66 100 100 100 100 100 60 99 97 82 100 100 100 100 100 100 100 98 91 78 99 100 100 100 100 100 100 100 100 100 100
100 100 100 21 100 100 100 88 85 100 100 100 100 51 81 100 100 100 100 100 100 100 100 100 84 41 99 100 98 100 100 100 100 100 100 100 100 100
100 83 100 100 100 96 31 16 43 100 100 100 84 94 92 100 100 100 100 100 100 100 100 100 100 82 2 12 83 100 100 100 100 100 100 100 100 100
100 100 100 100 100 99 100 100 63 100 100 100 100 98 99 98 100 100 100 100 100 100 100 100 100 62 0 3 5 100 100 100 100 100 100 100 100 100
100 100 100 100 100 100 100 58 96 100 100 95 65 96 100 100 100 100 100 100 100 100 100 100 100 13 17 79 49 53 100 100 100 100 100 100 100 100
100 100 100 100 100 100 100 100 45 31 100 100 70 89 98 100 100 100 100 100 100 100 100 100 100 5 5 6 100 100 100 100 100 100 100 100 100 100
100 100 100 100 100 97 97 10 33 67 72 51 100 81 100 100 100 100 100 100 100 100 100 98 26 5 53 100 97 100 100 100 100 100 100 100 100 100
100 100 100 100 80 93 73 93 17 67 30 94 99 100 100 100 100 100 100 100 100 100 100 100 6 5 25 58 100 100 100 100 100 100 100 100 100 100
100 96 100 100 100 91 46 55 36 6 59 100 100 100 100 100 100 100 100 100 100 100 100 98 5 5 12 74 100 100 100 100 100 100 100 100 100 100
98 92 100 87 99 100 95 94 83 5 28 50 100 100 100 100 100 100 100 100 100 94 5 13 10 75 77 61 100 100 100 100 100 100 100 100 100 100
100 78 85 86 99 100 100 92 37 5 5 5 5 5 5 5 8 27 14 92 100 67 37 51 51 50 92 95 76 100 99 97 100 100 100 100 100 100
100 100 86 92 89 60 34 6 15 25 5 5 5 5 5 5 5 5 5 12 68 95 73 94 94 58 100 90 99 100 100 100 100 100 100 100 100 100
48 94 43 78 7 24 52 29 78 40 5 5 5 5 5 61 40 11 38 89 100 94 91 100 100 91 92 76 85 100 100 100 100 100 100 100 100 100
100 100 67 100 100 100 100 77 8 5 5 5 5 5 5 15 8 22 44 48 95 100 98 100 100 100 74 58 81 100 100 100 100 100 100 100 100 100
100 100 100 100 100 99 33 5 5 5 5 11 5 18 56 79 94 90 83 74 100 100 100 100 100 100 100 100 99 94 100 100 100 100 100 100 100 100
100 100 100 100 100 45 5 5 5 5 5 5 5 44 72 77 73 84 72 96 100 100 100 100 100 100 100 100 100 100 100 100 100 100 100 100 100 100
100 100 92 100 100 70 16 55 63 49 23 9 8 50 72 93 99 74 79 100 100 100 100 100 100 100 100 100 100 100 100 100 100 86 67 100 100 100
100 99 100 100 100 91 56 65 100 93 63 66 80 94 100 100 100 100 100 100 100 100 100 100 100 100 100 100 100 100 100 100 100 100 100 100 100 100
100 100 100 100 100 92 78 74 86 88 81 90 88 78 59 71 94 100 100 77 91 98 100 100 85 90 100 100 100 100 83 100 100 100 100 100 100 100
100 100 100 100 100 100 100 100 99 89 99 99 100 100 100 95 100 99 98 94 93 99 100 90 68 35 77 99 100 100 95 88 100 100 100 100 100 100
100 100 100 100 100 100 100 100 100 100 100 100 100 100 100 100 100 100 100 100 100 96 98 91 79 78 99 96 94 100 100 84 83 95 100 100 100 100

GFSNE_prec_cloud_114.txt.gz
Cloud_Cover
100 100 100 100 100 100 97 100 100 99 100 100 100 39 6 100 78 100 100 100 45 100 66 89 99 6 32 60 96 80 97 100 100 100 100 100 100 100
100 100 100 100 92 97 100 100 100 100 100 100 100 79 90 69 6 99 100 100 99 100 92 50 61 50 96 5 6 34 98 100 100 100 100 100 100 100
100 100 100 100 100 100 100 100 100 100 100 100 100 83 100 98 100 87 76 97 91 100 100 95 78 89 46 3 3 71 100 100 100 100 100 100 100 100
100 100 100 100 100 100 100 100 100 100 100 100 98 97 100 100 100 100 99 100 100 100 100 99 97 100 8 0 90 89 100 100 100 100 100 100 100 100
100 100 100 100 100 100 100 100 100 44 100 100 100 100 100 95 99 100 100 100 100 100 100 100 94 100 31 2 1 88 100 100 100 100 100 100 100 100
100 100 100 100 100 100 100 100 100 100 100 100 100 100 98 67 100 100 100 100 100 100 100 100 100 100 87 0 0 81 100 100 100 100 100 100 100 100
100 100 100 100 100 100 90 100 100 100 83 100 100 99 91 98 100 100 100 100 100 100 100 100 100 100 96 0 0 9 100 100 100 100 100 100 100 100
100 100 100 100 100 100 100 100 100 100 100 100 100 100 100 73 100 100 100 100 100 100 100 100 100 100 71 0 0 4 95 100 100 100 100 100 100 100
100 100 100 100 100 100 100 100 100 100 51 22 100 100 99 100 100 100 100 100 100 100 100 100 100 84 16 0 0 5 5 75 95 100 100 100 100 100
100 100 100 100 100 100 100 100 100 57 44 62 100 56 74 100 100 100 100 100 100 100 100 100 100 31 5 5 5 53 77 100 91 100 100 100 100 100
100 100 100 100 100 100 100 98 22 89 100 62 60 66 74 100 91 100 100 100 100 100 100 100 99 14 5 5 5 49 68 32 95 100 100 100 100 100
100 100 100 100 100 100 99 83 98 100 100 100 100 98 96 100 96 99 100 100 100 100 83 73 36 69 86 48 90 95 50 80 100 100 100 100 100 100
100 100 100 100 100 90 83 100 93 49 98 100 98 93 38 5 22 80 93 100 100 100 7 30 100 100 94 79 75 78 52 94 100 100 100 100 100 100
100 100 100 100 99 100 100 97 100 96 100 46 46 85 81 12 22 27 16 18 88 100 59 69 100 100 100 100 79 71 31 77 91 99 96 99 100 100
100 100 100 100 100 100 100 100 100 50 64 96 99 80 16 58 42 32 77 100 87 70 90 100 100 100 100 100 100 94 86 100 94 90 100 100 100 100
100 100 100 100 100 100 100 100 74 70 100 100 47 10 88 59 57 67 78 83 98 100 100 100 100 92 100 100 100 100 83 97 100 100 100 100 100 100
100 100 100 100 100 100 100 100 94 19 59 9 5 6 54 91 93 99 97 100 99 100 99 93 100 98 100 100 100 100 100 100 100 100 100 100 100 100
96 98 100 100 100 100 100 100 14 5 6 5 66 80 65 78 100 98 100 100 100 100 98 81 99 100 100 100 100 100 100 100 100 100 100 100 100 100
100 100 100 100 100 100 100 100 92 50 16 47 89 100 98 90 98 100 93 100 90 95 91 88 100 100 100 100 100 100 100 100 100 100 100 100 100 100
100 100 100 100 100 100 100 100 59 77 71 100 100 100 100 100 100 81 93 100 100 100 98 96 72 87 100 100 100 100 100 100 100 100 100 100 100 100
100 100 100 100 100 100 100 100 98 99 100 100 100 100 100 100 100 95 91 100 100 97 99 88 91 80 92 100 100 100 99 100 100 100 100 100 100 100
100 100 100 100 100 100 100 100 100 100 91 98 100 100 100 100 100 100 100 100 100 100 100 100 97 82 96 100 100 100 71 73 100 100 100 92 97 95
100 100 100 100 100 100 100 100 100 100 100 100 100 100 100 100 100 100 100 100 100 100 100 100 86 79 96 100 100 100 100 99 96 100 96 79 64 17

GFSNE_prec_cloud_117.txt.gz
Cloud_Cover
100 100 100 100 100 100 100 100 100 100 100 100 98 100 100 100 100 97 60 100 100 81 100 100 99 95 60 92 5 11 32 100 100 100 100 100 100 100
100 100 100 100 100 100 100 100 100 100 100 100 100 94 34 84 54 53 94 100 100 100 39 100 100 84 68 35 5 11 100 100 100 100 56 100 100 100
100 100 100 100 100 99 100 100 100 100 100 100 100 100 100 97 100 100 100 100 81 59 86 78 100 60 97 82 8 91 100 100 100 100 0 46 100 100
100 100 100 100 100 99 100 100 100 100 100 100 100 100 100 100 100 100 99 100 100 100 98 52 100 90 97 96 4 30 93 100 100 100 1 0 88 100
100 100 100 100 100 100 100 100 100 100 100 100 100 100 100 100 100 100 58 100 92 99 99 100 100 100 100 45 2 0 94 100 100 100 67 0 65 100
100 100 99 100 100 100 100 100 100 99 100 100 100 100 100 100 100 87 100 100 100 100 100 100 100 100 100 100 1 2 70 100 100 100 100 100 78 100
100 100 100 100 100 100 100 100 100 100 100 100 100 100 100 100 100 100 100 100 100 100 100 100 100 100 100 100 2 0 64 72 100 100 100 100 100 100
100 100 100 100 100 100 100 100 100 100 100 100 100 100 100 100 98 100 100 100 100 100 100 100 100 100 100 100 1 0 5 99 100 100 100 100 100 100
100 100 100 100 100 100 100 100 100 100 100 100 100 100 100 100 100 100 100 100 100 100 100 100 100 100 99 18 3 0 0 24 95 100 100 100 100 100
100 100 100 100 100 100 100 100 100 100 100 100 100 90 100 100 96 98 100 100 100 100 100 100 100 100 73 4 3 4 5 5 5 62 100 100 100 100
100 100 100 100 100 100 100 100 100 100 100 100 61 92 100 100 70 100 100 100 100 100 100 100 100 97 10 5 15 9 5 5 42 5 89 98 100 100
100 100 100 100 100 100 100 99 100 100 100 100 99 100 99 100 100 100 100 100 100 100 100 43 78 43 5 8 92 66 12 62 89 32 33 97 100 100
100 100 100 100 100 100 100 100 100 100 98 100 100 100 100 99 93 100 100 100 100 100 100 10 77 18 15 87 98 75 98 89 61 95 100 97 100 100
100 100 100 100 100 100 100 100 100 100 100 100 100 100 100 98 100 100 91 72 87 99 98 24 57 22 74 65 88 42 86 98 71 64 84 100 100 100
100 100 100 100 100 100 100 100 100 100 100 100 100 100 100 100 98 96 100 100 90 83 97 100 99 99 77 75 90 70 96 70 75 43 35 91 77 86
100 100 100 100 100 100 100 100 100 100 100 100 100 88 100 100 83 94 91 100 90 100 27 92 100 81 91 87 100 89 99 98 100 74 62 76 83 77
100 100 100 100 100 100 100 100 100 100 100 98 100 78 78 100 99 100 82 96 72 96 100 43 55 90 94 88 97 100 100 100 100 100 100 92 79 94
100 100 100 100 88 90 100 99 100 100 100 23 81 100 100 100 94 97 76 74 82 36 61 60 88 85 87 99 100 100 100 100 100 100 100 100 100 100
100 100 100 100 95 99 24 90 100 100 100 100 100 100 100 99 94 94 100 79 75 51 42 63 49 60 76 96 100 100 100 100 100 100 100 100 100 100
100 100 100 100 100 84 100 100 100 100 100 100 100 100 95 100 94 100 100 100 100 100 48 93 80 100 100 100 100 100 100 100 100 100 100 100 100 100
100 100 100 100 100 100 100 100 100 100 100 100 98 91 97 86 93 91 100 100 100 100 100 61 99 93 100 100 100 97 58 100 100 100 100 100 100 100
100 100 100 100 100 100 100 100 100 100 100 100 86 90 84 89 97 74 86 98 100 97 100 86 80 97 100 100 100 100 100 90 99 100 100 100 100 100
100 100 100 100 100 100 100 100 100 100 100 100 100 96 98 98 72 70 76 100 98 92 99 98 100 100 100 100 100 100 100 100 95 100 100 100 100 100

GFSNE_prec_cloud_120.txt.gz
Cloud_Cover
100 100 87 100 100 100 100 100 100 100 98 100 100 100 100 100 95 86 96 92 60 72 54 90 11 100 100 100 34 9 81 100 100 100 100 100 100 100
100 100 100 100 100 100 100 100 100 100 100 100 100 100 100 100 98 28 69 71 19 96 99 93 96 100 100 75 61 97 100 100 100 100 100 100 71 51
100 100 100 100 100 100 100 100 100 100 100 100 100 100 100 100 100 64 99 100 100 100 100 100 100 100 100 61 7 100 100 98 100 100 100 94 1 9
100 100 100 100 100 100 100 100 100 100 100 100 100 98 98 100 100 100 100 94 100 100 100 100 100 100 88 68 89 100 100 100 100 100 100 2 0 0
100 100 100 100 100 100 100 100 100 100 100 100 100 100 100 100 100 100 100 100 100 100 100 100 100 100 100 100 100 100 65 90 100 100 100 13 0 0
100 100 100 100 100 100 100 100 100 100 100 100 100 100 100 100 98 100 100 100 100 78 99 100 100 99 100 100 100 74 32 89 100 100 100 100 94 47
100 100 100 100 100 100 100 100 100 100 100 100 100 95 100 100 100 100 100 100 100 100 80 100 100 100 100 100 100 35 4 31 100 100 100 100 100 100
100 100 100 100 100 100 100 100 100 100 100 100 100 100 100 100 100 100 100 100 100 100 100 100 100 100 100 100 97 61 15 33 100 100 100 100 100 100
100 100 100 100 100 100 100 100 100 100 100 100 100 100 100 100 100 100 100 100 100 100 100 100 100 100 100 100 64 3 0 5 63 100 100 100 100 100
100 100 100 100 100 100 100 100 100 100 100 100 100 100 99 100 100 100 100 100 100 100 100 100 100 100 100 99 5 0 0 0 5 79 100 100 100 100
100 100 100 100 100 100 100 100 100 100 100 100 100 100 100 100 100 100 100 100 100 100 100 100 100 100 79 5 5 0 0 11 71 98 30 96 100 100
100 100 100 100 100 100 100 100 100 100 100 100 100 100 100 100 100 100 100 100 100 100 100 100 97 90 34 5 6 5 5 33 90 100 100 59 57 99
100 100 100 100 100 100 100 100 100 100 100 100 100 100 100 100 100 100 100 100 100 100 100 98 98 73 40 20 13 26 5 32 96 100 100 30 36 67
100 100 100 100 100 100 100 100 100 100 100 100 100 100 100 100 100 100 100 100 100 100 100 100 92 37 86 75 10 14 29 74 99 100 98 96 84 43
100 100 100 100 100 100 100 100 100 100 100 100 100 100 100 100 100 100 100 100 100 100 99 97 91 95 67 45 7 22 55 83 100 100 100 79 57 25
100 100 100 100 100 100 100 100 100 100 100 100 100 100 100 100 100 100 100 100 100 98 78 100 100 100 100 100 53 6 96 100 100 100 100 100 86 85
100 100 100 100 100 100 100 100 100 100 100 100 100 100 100 100 100 100 99 100 99 100 100 76 42 45 23 8 45 60 93 84 100 100 97 100 100 100
100 100 100 100 100 100 100 100 100 100 100 100 100 94 100 100 100 100 99 100 100 86 95 97 91 55 36 40 45 92 58 80 100 100 100 100 100 100
100 100 100 100 100 100 100 100 100 100 100 50 60 44 100 100 100 100 100 100 100 86 78 89 100 100 100 100 96 97 90 24 94 100 100 100 100 100
100 100 100 100 100 100 100 100 100 100 100 50 16 63 83 94 89 100 100 100 97 79 82 99 100 100 100 100 100 94 98 99 86 57 100 100 100 100
100 100 100 100 100 100 100 100 100 100 100 100 50 11 97 100 100 99 92 71 79 85 86 96 100 100 100 100 94 87 100 100 100 92 70 98 100 100
100 100 100 100 100 100 100 100 100 100 100 100 91 100 100 98 100 100 100 91 98 98 69 85 100 100 100 100 100 100 93 100 100 100 100 79 74 100
100 100 100 100 100 100 100 100 100 100 100 100 100 100 100 100 96 72 56 88 100 100 77 68 100 100 100 100 100 100 98 84 100 100 100 96 100 100

GFSNE_prec_cloud_123.txt.gz
Cloud_Cover
100 100 100 100 100 100 100 99 100 100 100 100 100 94 93 100 100 99 100 100 23 100 100 100 32 99 36 90 99 100 98 76 100 100 100 100 100 100
100 100 88 96 100 100 100 100 100 100 100 100 100 100 100 100 100 99 100 100 94 70 100 100 96 63 100 100 100 100 100 84 100 100 100 100 100 100
100 100 100 100 99 100 100 100 100 100 100 100 100 94 100 100 99 96 100 51 98 100 100 100 100 100 100 58 74 90 93 100 100 100 100 100 92 24
100 100 98 100 100 100 100 100 100 100 100 100 100 100 100 100 100 100 100 100 54 97 100 100 100 100 100 12 66 100 98 100 100 100 100 100 0 0
100 100 100 99 100 100 100 100 100 100 100 100 100 100 100 100 100 100 100 99 65 100 100 100 100 100 75 61 87 100 100 100 100 100 100 96 4 0
100 100 100 100 100 100 100 100 100 100 100 100 100 100 100 100 100 100 88 100 100 100 100 100 100 100 99 100 100 71 100 100 97 100 100 100 58 14
100 100 100 100 100 100 100 100 100 100 100 100 100 100 100 100 100 100 100 100 100 100 100 100 63 94 100 100 100 100 100 39 100 100 100 100 100 100
100 100 100 100 100 100 100 100 100 100 100 100 100 100 100 100 100 100 100 100 100 100 100 100 50 100 100 97 100 100 100 93 60 100 100 100 100 100
100 100 100 100 100 100 100 100 100 100 100 100 100 100 100 100 100 100 100 100 100 100 96 100 100 100 100 100 100 100 100 92 16 100 100 100 100 100
100 100 100 100 100 100 100 100 100 100 100 100 100 100 100 100 100 100 100 100 100 100 100 100 100 100 100 100 100 97 82 6 5 71 100 100 100 100
100 100 100 100 100 100 100 100 100 100 100 100 100 100 100 100 100 100 100 100 100 100 100 100 100 100 100 100 100 100 99 14 61 8 36 91 100 100
100 100 100 100 100 100 100 100 100 100 100 100 100 100 100 100 100 100 100 100 100 100 100 100 100 100 100 100 97 16 100 26 44 5 92 100 100 100
100 100 100 100 100 100 100 100 100 100 100 100 100 100 100 100 100 100 100 100 100 100 100 100 100 100 100 100 88 96 9 5 7 11 100 100 100 100
100 100 100 100 100 100 100 100 100 100 100 100 100 100 100 100 100 100 100 100 100 100 100 100 100 100 100 100 100 48 22 30 31 25 97 86 100 100
100 100 100 100 100 100 100 100 100 100 100 100 100 100 100 100 100 100 100 100 100 100 100 100 96 100 100 100 82 30 26 9 36 27 65 90 100 100
100 100 100 100 100 100 100 100 100 100 100 100 100 100 100 100 100 100 100 100 100 100 100 100 100 100 100 100 88 56 44 71 68 42 73 88 100 100
100 100 100 100 100 100 100 100 100 100 100 100 100 100 100 100 100 100 100 100 100 100 100 100 100 100 82 100 80 71 19 72 67 40 92 64 100 100
100 100 100 100 100 100 100 100 100 100 100 100 100 100 100 100 100 100 100 100 100 100 100 100 100 100 100 67 87 74 74 82 73 76 80 80 100 100
100 100 100 100 100 100 100 100 100 100 100 100 100 100 100 100 100 100 100 100 100 100 100 93 100 100 56 89 98 98 68 74 98 59 63 90 93 100
100 100 100 100 100 100 100 100 100 100 100 100 100 100 100 100 100 100 100 100 100 100 99 100 100 94 86 99 100 60 88 100 97 91 92 87 98 99
100 100 100 100 100 100 100 100 100 100 100 100 100 100 100 100 96 100 100 93 90 99 100 99 95 97 91 86 56 46 94 100 100 100 100 91 95 98
100 100 100 100 100 100 100 100 100 100 100 100 100 100 100 100 100 100 100 100 97 85 69 96 100 98 100 100 74 68 99 100 100 100 100 100 100 98
100 100 100 100 100 100 100 100 100 100 100 100 100 100 99 99 100 100 100 84 100 100 98 100 100 100 100 100 94 100 100 84 100 100 100 100 100 100

GFSNE_prec_cloud_126.txt.gz
Cloud_Cover
100 100 100 100 100 100 100 100 99 95 100 100 100 100 100 100 100 100 97 99 100 100 100 100 67 79 93 31 44 11 99 100 78 100 100 100 100 100
100 100 100 100 100 100 100 95 78 100 100 99 100 100 100 100 100 99 90 84 100 100 100 100 100 99 72 99 57 31 84 99 95 99 100 100 100 100
100 100 100 100 100 100 100 100 100 100 100 100 99 100 100 98 100 100 97 78 100 100 100 100 100 100 100 100 85 32 100 97 100 94 100 100 100 88
100 100 100 100 100 100 100 100 100 100 100 100 100 100 100 100 100 92 100 100 100 100 100 100 100 100 100 83 100 84 100 100 68 92 100 100 100 32
100 100 100 100 100 100 100 100 100 100 100 100 100 100 100 100 100 100 100 100 100 100 100 100 100 100 100 100 78 96 38 91 88 100 100 100 33 11
100 100 100 100 100 98 100 100 100 100 100 100 100 100 100 100 100 100 100 100 100 100 100 95 97 100 100 100 100 22 100 61 100 100 100 100 100 26
100 100 100 100 100 100 100 100 100 100 100 100 100 100 100 100 100 100 100 100 100 100 99 97 100 100 100 100 87 99 100 100 100 100 100 100 100 100
100 100 100 100 100 100 100 100 100 100 100 100 100 100 100 100 100 100 100 100 100 100 100 100 100 100 100 100 100 100 100 74 100 100 100 100 100 100
100 100 100 100 100 100 100 100 100 100 100 100 100 100 98 100 100 100 100 100 100 100 100 100 100 100 100 100 100 100 100 100 100 100 100 100 100 98
100 100 100 100 100 100 100 100 100 100 100 100 100 100 100 100 100 100 100 100 100 100 100 100 100 100 100 100 100 100 100 100 98 100 100 100 100 100
100 100 100 100 100 100 100 100 100 100 100 100 100 100 100 100 100 100 100 100 100 100 100 100 100 100 100 100 100 100 100 100 100 100 100 100 100 100
100 100 100 100 100 100 100 100 100 100 100 100 100 100 100 100 100 100 100 100 100 100 100 100 100 100 100 100 100 100 100 100 100 100 100 100 100 100
100 100 100 100 100 100 100 100 100 100 100 100 100 100 100 100 100 100 100 100 100 100 100 100 100 100 100 100 80 100 100 100 84 100 100 100 100 100
100 100 100 100 100 100 100 100 100 100 100 100 100 100 100 100 100 100 100 100 100 100 100 100 100 100 100 100 100 100 100 100 100 100 100 100 82 86
100 100 100 100 100 100 100 100 100 100 100 100 100 100 100 100 100 100 100 100 100 100 100 100 100 100 100 100 100 100 97 100 100 100 100 83 77 88
100 100 100 100 100 100 100 100 100 100 100 100 100 100 100 100 100 100 100 100 100 100 100 100 100 100 100 100 100 100 100 100 100 98 96 85 62 98
100 100 100 100 100 100 100 100 100 100 100 100 100 100 100 100 100 100 100 100 100 100 100 100 100 100 100 85 98 100 100 100 91 82 91 89 88 99
100 100 100 100 100 100 100 100 100 100 100 100 100 100 100 100 100 100 100 100 100 100 100 100 100 67 97 66 91 100 100 100 72 52 63 73 95 95
100 100 100 100 100 100 100 100 100 100 100 100 100 100 100 100 100 100 100 100 100 100 100 100 100 90 100 100 100 100 100 91 96 62 67 68 94 93
100 100 100 100 100 100 100 100 100 100 100 100 100 100 100 100 100 100 100 100 100 100 100 100 100 100 100 100 100 100 100 74 92 93 78 64 60 98
100 100 100 100 100 100 100 100 100 100 100 100 100 100 100 100 100 100 100 100 100 100 100 100 100 100 100 100 100 98 92 84 85 99 90 83 77 94
100 100 100 100 100 100 100 100 100 100 100 100 100 100 100 100 100 100 100 100 100 61 100 100 100 100 100 100 93 98 86 78 85 96 93 87 84 99
100 100 100 100 100 100 100 100 100 100 100 100 100 100 100 100 100 100 100 100 100 99 100 100 100 100 100 100 90 100 100 97 91 100 100 100 100 100

GFSNE_prec_cloud_132.txt.gz
Cloud_Cover
100 100 100 100 100 100 100 100 100 100 100 100 100 100 100 100 100 100 100 100 100 100 100 100 100 94 80 94 86 81 21 100 52 31 48 73 100 100
100 100 100 100 100 100 100 100 100 100 100 100 100 100 100 100 100 97 97 100 100 100 100 100 100 97 100 100 65 61 97 80 92 26 8 100 100 100
100 100 100 100 100 100 100 100 100 100 91 99 100 100 100 100 100 99 100 100 100 100 100 100 100 100 43 81 77 100 100 73 86 33 100 100 100 100
100 100 100 100 100 100 100 100 100 100 100 100 100 100 100 100 100 100 100 100 100 100 100 100 100 97 100 100 100 100 98 100 100 54 100 100 100 100
100 100 100 100 100 100 100 100 100 100 100 100 100 100 100 100 100 100 100 100 100 100 100 100 100 100 94 95 99 100 100 90 81 80 100 94 100 100
100 100 100 100 100 100 100 100 100 100 100 100 100 100 100 100 100 100 100 100 100 100 100 100 100 100 100 100 100 100 26 6 18 99 100 100 83 100
100 100 100 100 100 100 100 100 100 100 100 100 100 100 100 100 100 100 100 100 100 100 90 97 100 100 100 100 100 96 13 5 10 95 100 100 100 100
100 100 100 100 100 100 100 100 100 100 100 100 100 100 100 100 100 100 100 100 100 100 100 100 100 100 100 100 100 82 30 83 23 100 100 100 100 48
100 100 100 100 100 100 100 100 100 100 100 100 100 100 100 100 100 100 100 100 100 100 100 100 100 100 100 100 100 100 100 100 100 100 100 100 100 100
100 100 100 100 100 100 100 100 100 100 100 100 100 100 100 100 100 100 100 100 100 100 100 100 100 100 100 100 100 100 100 100 100 100 100 100 100 100
100 100 100 100 100 100 100 100 100 100 100 100 100 100 100 100 100 100 100 100 100 100 100 100 100 100 100 100 100 100 100 100 100 100 100 100 100 100
100 100 96 99 100 100 100 100 100 100 100 100 100 100 100 100 100 100 100 100 100 100 100 100 100 100 100 100 100 100 100 100 100 100 100 100 100 100
100 96 82 95 100 100 100 100 100 100 100 100 100 100 100 100 100 100 100 100 100 100 100 100 100 100 100 100 100 100 100 100 100 100 100 100 100 100
73 56 46 98 100 100 90 98 100 100 100 100 100 100 100 100 100 100 100 100 100 100 100 100 100 100 100 100 100 100 100 100 100 100 100 100 100 100
24 41 98 98 100 100 100 100 100 100 100 100 100 100 100 100 100 100 100 100 100 100 100 100 100 100 100 100 100 100 100 100 100 100 100 100 100 100
83 98 100 99 100 97 100 100 100 100 100 100 100 100 100 100 100 100 100 100 100 100 100 100 100 100 100 100 100 100 100 100 100 100 100 100 100 84
100 100 100 100 100 100 100 100 100 100 100 100 100 100 100 100 100 100 100 100 100 100 100 100 100 100 100 100 100 100 100 100 100 100 100 74 90 99
100 100 100 100 100 100 100 100 100 100 100 100 100 100 100 100 100 100 100 100 100 100 100 100 100 100 100 100 100 100 100 100 100 100 100 98 100 80
100 100 100 100 100 100 100 100 100 100 100 100 100 100 100 100 100 100 100 100 100 100 100 100 100 100 100 100 100 100 100 100 100 100 100 40 100 100
100 100 100 100 100 100 100 100 100 100 100 100 100 100 100 100 100 100 100 100 100 100 100 100 100 100 100 100 100 100 100 100 100 100 90 100 100 100
100 100 100 100 100 100 100 100 100 100 100 100 100 100 100 100 100 100 100 100 100 100 100 100 100 100 100 100 100 100 100 97 100 100 99 100 100 100
48 100 100 100 100 100 100 100 100 100 100 100 100 100 100 100 100 100 100 100 100 100 100 100 100 100 100 100 100 100 100 100 100 100 100 100 100 100
100 100 100 100 100 100 100 100 100 100 100 100 100 100 100 100 100 100 100 100 100 100 100 100 100 100 100 100 100 100 100 100 70 86 100 100 100 100